| time (UTC) | temp F | wind direction | speed MPH | gust MPH | rain 1hr in | rain 24hr in | rain mn in | humidity % | barometer mb |
| 20260902120402 | 81 | 258 | 8.0 | 17.0 | 0.00 | 0.06 | 0.00 | 91 | 1011.3 |
| 20260902120302 | 81 | 250 | 8.0 | 17.0 | 0.00 | 0.06 | 0.00 | 91 | 1011.3 |
| 20260902120203 | 81 | 219 | 9.0 | 17.0 | 0.00 | 0.06 | 0.00 | 91 | 1011.3 |
| 20260902120002 | 81 | 252 | 11.0 | 17.0 | 0.00 | 0.06 | 0.00 | 91 | 1011.3 |
| 20260902115902 | 81 | 214 | 11.0 | 17.0 | 0.00 | 0.06 | 0.00 | 91 | 1011.2 |
| 20260902115804 | 81 | 219 | 11.0 | 17.0 | 0.00 | 0.06 | 0.00 | 91 | 1011.3 |
| 20260902115703 | 81 | 255 | 11.0 | 17.0 | 0.00 | 0.06 | 0.00 | 91 | 1011.3 |
| 20260902115602 | 81 | 233 | 11.0 | 16.0 | 0.00 | 0.06 | 0.00 | 91 | 1011.2 |
| 20260902115503 | 81 | 230 | 11.0 | 16.0 | 0.00 | 0.06 | 0.00 | 91 | 1011.3 |
| 20260902115402 | 81 | 217 | 11.0 | 16.0 | 0.00 | 0.06 | 0.00 | 91 | 1011.3 |
| 20260902115306 | 81 | 224 | 10.0 | 14.0 | 0.00 | 0.06 | 0.00 | 91 | 1011.2 |
| 20260902115202 | 81 | 223 | 9.0 | 13.0 | 0.00 | 0.06 | 0.00 | 91 | 1011.2 |
| 20260902115103 | 81 | 224 | 10.0 | 13.0 | 0.00 | 0.06 | 0.00 | 91 | 1011.2 |
| 20260902115002 | 81 | 241 | 10.0 | 13.0 | 0.00 | 0.06 | 0.00 | 91 | 1011.3 |
| 20260902114902 | 81 | 199 | 8.0 | 14.0 | 0.00 | 0.06 | 0.00 | 91 | 1011.3 |
| 20260902114804 | 81 | 226 | 7.0 | 14.0 | 0.00 | 0.06 | 0.00 | 91 | 1011.3 |
| 20260902114703 | 81 | 247 | 8.0 | 14.0 | 0.00 | 0.06 | 0.00 | 91 | 1011.3 |
| 20260902114603 | 81 | 252 | 8.0 | 14.0 | 0.00 | 0.06 | 0.00 | 91 | 1011.3 |
| 20260902114503 | 81 | 230 | 8.0 | 14.0 | 0.00 | 0.06 | 0.00 | 91 | 1011.3 |
| 20260902114402 | 81 | 216 | 9.0 | 14.0 | 0.00 | 0.06 | 0.00 | 91 | 1011.3 |
| 20260902114302 | 81 | 234 | 8.0 | 14.0 | 0.00 | 0.06 | 0.00 | 91 | 1011.3 |
| 20260902114202 | 81 | 271 | 8.0 | 14.0 | 0.00 | 0.06 | 0.00 | 91 | 1011.2 |
| 20260902114104 | 82 | 238 | 9.0 | 14.0 | 0.00 | 0.06 | 0.00 | 91 | 1011.3 |
| 20260902114002 | 82 | 255 | 10.0 | 14.0 | 0.00 | 0.06 | 0.00 | 91 | 1011.2 |
| 20260902113902 | 81 | 233 | 8.0 | 14.0 | 0.00 | 0.06 | 0.00 | 91 | 1011.2 |
| 20260902113803 | 82 | 233 | 7.0 | 12.0 | 0.00 | 0.06 | 0.00 | 91 | 1011.3 |
| 20260902113702 | 82 | 237 | 7.0 | 14.0 | 0.00 | 0.06 | 0.00 | 91 | 1011.3 |
| 20260902113602 | 82 | 262 | 8.0 | 14.0 | 0.00 | 0.06 | 0.00 | 91 | 1011.4 |
| 20260902113503 | 81 | 234 | 8.0 | 14.0 | 0.00 | 0.06 | 0.00 | 91 | 1011.4 |
| 20260902113403 | 82 | 220 | 8.0 | 14.0 | 0.00 | 0.06 | 0.00 | 91 | 1011.3 |
| 20260902113303 | 82 | 258 | 8.0 | 15.0 | 0.00 | 0.06 | 0.00 | 91 | 1011.4 |
| 20260902113202 | 82 | 238 | 6.0 | 15.0 | 0.00 | 0.06 | 0.00 | 91 | 1011.3 |
| 20260902113104 | 82 | 250 | 7.0 | 15.0 | 0.00 | 0.06 | 0.00 | 91 | 1011.3 |
| 20260902113003 | 82 | 241 | 7.0 | 16.0 | 0.00 | 0.06 | 0.00 | 91 | 1011.4 |
| 20260902112903 | 82 | 261 | 8.0 | 16.0 | 0.00 | 0.06 | 0.00 | 91 | 1011.3 |
| 20260902112803 | 82 | 248 | 9.0 | 16.0 | 0.00 | 0.06 | 0.00 | 91 | 1011.4 |
| 20260902112703 | 82 | 238 | 9.0 | 16.0 | 0.00 | 0.06 | 0.00 | 91 | 1011.3 |
| 20260902112602 | 82 | 259 | 10.0 | 16.0 | 0.00 | 0.06 | 0.00 | 90 | 1011.3 |
| 20260902112502 | 82 | 228 | 10.0 | 16.0 | 0.00 | 0.06 | 0.00 | 90 | 1011.4 |
| 20260902112403 | 82 | 247 | 9.0 | 16.0 | 0.00 | 0.06 | 0.00 | 90 | 1011.3 |
| 20260902112305 | 82 | 224 | 9.0 | 16.0 | 0.00 | 0.06 | 0.00 | 90 | 1011.3 |
| 20260902112201 | 82 | 240 | 9.0 | 16.0 | 0.00 | 0.06 | 0.00 | 90 | 1011.3 |
| 20260902112103 | 82 | 212 | 10.0 | 16.0 | 0.00 | 0.06 | 0.00 | 90 | 1011.3 |
| 20260902112004 | 82 | 238 | 10.0 | 15.0 | 0.00 | 0.06 | 0.00 | 90 | 1011.3 |
| 20260902111902 | 82 | 248 | 8.0 | 15.0 | 0.00 | 0.06 | 0.00 | 90 | 1011.3 |
| 20260902111801 | 82 | 230 | 8.0 | 15.0 | 0.00 | 0.06 | 0.00 | 90 | 1011.3 |
| 20260902111703 | 82 | 234 | 9.0 | 15.0 | 0.00 | 0.06 | 0.00 | 90 | 1011.3 |
| 20260902111602 | 82 | 213 | 9.0 | 15.0 | 0.00 | 0.06 | 0.00 | 90 | 1011.3 |
| 20260902111502 | 82 | 235 | 10.0 | 14.0 | 0.00 | 0.06 | 0.00 | 90 | 1011.3 |
| 20260902111403 | 82 | 214 | 10.0 | 14.0 | 0.00 | 0.06 | 0.00 | 90 | 1011.3 |
| 20260902111303 | 82 | 217 | 9.0 | 12.0 | 0.00 | 0.06 | 0.00 | 90 | 1011.3 |
| 20260902111201 | 82 | 244 | 9.0 | 12.0 | 0.00 | 0.06 | 0.00 | 90 | 1011.3 |
| 20260902111103 | 82 | 228 | 9.0 | 12.0 | 0.00 | 0.06 | 0.00 | 90 | 1011.2 |
| 20260902111003 | 82 | 243 | 8.0 | 12.0 | 0.00 | 0.06 | 0.00 | 90 | 1011.2 |
| 20260902110902 | 82 | 234 | 8.0 | 14.0 | 0.00 | 0.06 | 0.00 | 90 | 1011.2 |
| 20260902110802 | 82 | 241 | 7.0 | 14.0 | 0.00 | 0.06 | 0.00 | 90 | 1011.3 |
| 20260902110703 | 82 | 226 | 8.0 | 14.0 | 0.00 | 0.06 | 0.00 | 90 | 1011.2 |
| 20260902110602 | 82 | 261 | 8.0 | 14.0 | 0.00 | 0.06 | 0.00 | 90 | 1011.2 |
| 20260902110502 | 82 | 244 | 8.0 | 14.0 | 0.00 | 0.06 | 0.00 | 90 | 1011.1 |
| 20260902110403 | 82 | 258 | 8.0 | 14.0 | 0.00 | 0.06 | 0.00 | 90 | 1011.1 |
| 20260902110301 | 82 | 223 | 7.0 | 14.0 | 0.00 | 0.06 | 0.00 | 90 | 1011.2 |
| 20260902110203 | 82 | 206 | 8.0 | 16.0 | 0.00 | 0.06 | 0.00 | 90 | 1011.2 |
| 20260902110005 | 82 | 235 | 9.0 | 16.0 | 0.00 | 0.06 | 0.00 | 90 | 1011.1 |
| 20260902105902 | 82 | 237 | 7.0 | 16.0 | 0.00 | 0.06 | 0.00 | 90 | 1011.2 |
| 20260902105802 | 82 | 233 | 7.0 | 16.0 | 0.00 | 0.06 | 0.00 | 90 | 1011.2 |
| 20260902105703 | 82 | 240 | 7.0 | 16.0 | 0.00 | 0.06 | 0.00 | 90 | 1011.2 |
| 20260902105602 | 82 | 258 | 9.0 | 16.0 | 0.00 | 0.06 | 0.00 | 90 | 1011.1 |
| 20260902105503 | 82 | 213 | 9.0 | 16.0 | 0.00 | 0.06 | 0.00 | 90 | 1011.2 |
| 20260902105402 | 82 | 216 | 10.0 | 19.0 | 0.00 | 0.06 | 0.00 | 90 | 1011.2 |
| 20260902105306 | 82 | 219 | 11.0 | 20.0 | 0.00 | 0.06 | 0.00 | 90 | 1011.2 |
| 20260902105202 | 82 | 233 | 11.0 | 20.0 | 0.00 | 0.06 | 0.00 | 90 | 1011.2 |
| 20260902105101 | 82 | 237 | 10.0 | 20.0 | 0.00 | 0.06 | 0.00 | 90 | 1011.2 |
| 20260902104958 | 82 | 230 | 9.0 | 20.0 | 0.00 | 0.06 | 0.00 | 90 | 1011.2 |
| 20260902104857 | 82 | 213 | 7.0 | 20.0 | 0.00 | 0.06 | 0.00 | 90 | 1011.2 |
| 20260902104756 | 82 | 200 | 7.0 | 20.0 | 0.00 | 0.06 | 0.00 | 90 | 1011.2 |
| 20260902104655 | 82 | 255 | 9.0 | 20.0 | 0.00 | 0.06 | 0.00 | 90 | 1011.2 |
| 20260902104552 | 82 | 237 | 11.0 | 20.0 | 0.00 | 0.06 | 0.00 | 90 | 1011.2 |
| 20260902104452 | 82 | 243 | 12.0 | 20.0 | 0.00 | 0.06 | 0.00 | 90 | 1011.3 |
| 20260902104349 | 82 | 243 | 11.0 | 17.0 | 0.00 | 0.06 | 0.00 | 90 | 1011.2 |
| 20260902104248 | 82 | 244 | 9.0 | 15.0 | 0.00 | 0.06 | 0.00 | 90 | 1011.3 |
| 20260902104147 | 82 | 199 | 10.0 | 17.0 | 0.00 | 0.06 | 0.00 | 90 | 1011.3 |
| 20260902104045 | 82 | 248 | 10.0 | 17.0 | 0.00 | 0.06 | 0.00 | 90 | 1011.2 |
| 20260902103943 | 82 | 233 | 9.0 | 17.0 | 0.00 | 0.06 | 0.00 | 90 | 1011.3 |
| 20260902103842 | 82 | 254 | 9.0 | 17.0 | 0.00 | 0.06 | 0.00 | 90 | 1011.2 |
| 20260902103740 | 82 | 245 | 9.0 | 17.0 | 0.00 | 0.06 | 0.00 | 90 | 1011.3 |
| 20260902103640 | 82 | 238 | 9.0 | 17.0 | 0.00 | 0.06 | 0.00 | 90 | 1011.2 |
| 20260902103537 | 82 | 230 | 9.0 | 17.0 | 0.00 | 0.06 | 0.00 | 90 | 1011.2 |
| 20260902103437 | 82 | 240 | 8.0 | 17.0 | 0.00 | 0.06 | 0.00 | 90 | 1011.3 |
| 20260902103337 | 82 | 234 | 10.0 | 17.0 | 0.00 | 0.06 | 0.00 | 90 | 1011.3 |
| 20260902103239 | 82 | 254 | 10.0 | 17.0 | 0.00 | 0.06 | 0.00 | 90 | 1011.3 |
| 20260902103139 | 82 | 251 | 9.0 | 15.0 | 0.00 | 0.06 | 0.00 | 89 | 1011.3 |
| 20260902103038 | 82 | 227 | 8.0 | 15.0 | 0.00 | 0.06 | 0.00 | 89 | 1011.4 |
| 20260902102939 | 82 | 247 | 8.0 | 15.0 | 0.00 | 0.06 | 0.00 | 89 | 1011.3 |
| 20260902102837 | 82 | 240 | 9.0 | 15.0 | 0.00 | 0.06 | 0.00 | 89 | 1011.3 |
| 20260902102737 | 82 | 221 | 10.0 | 15.0 | 0.00 | 0.06 | 0.00 | 89 | 1011.3 |
| 20260902102637 | 82 | 228 | 9.0 | 15.0 | 0.00 | 0.06 | 0.00 | 89 | 1011.3 |
| 20260902102538 | 82 | 216 | 9.0 | 15.0 | 0.00 | 0.06 | 0.00 | 89 | 1011.2 |
| 20260902102438 | 82 | 238 | 10.0 | 15.0 | 0.00 | 0.06 | 0.00 | 89 | 1011.3 |
| 20260902102338 | 82 | 248 | 10.0 | 15.0 | 0.00 | 0.06 | 0.00 | 89 | 1011.3 |
| 20260902102238 | 82 | 243 | 9.0 | 15.0 | 0.00 | 0.06 | 0.00 | 89 | 1011.4 |
| 20260902102137 | 82 | 223 | 7.0 | 15.0 | 0.00 | 0.06 | 0.00 | 89 | 1011.4 |
| 20260902102037 | 82 | 271 | 7.0 | 15.0 | 0.00 | 0.06 | 0.00 | 89 | 1011.4 |
| 20260902101938 | 82 | 241 | 9.0 | 15.0 | 0.00 | 0.06 | 0.00 | 89 | 1011.3 |
| 20260902101837 | 82 | 226 | 10.0 | 15.0 | 0.00 | 0.06 | 0.00 | 89 | 1011.4 |
| 20260902101737 | 82 | 281 | 9.0 | 14.0 | 0.00 | 0.06 | 0.00 | 89 | 1011.4 |
| 20260902101637 | 82 | 247 | 9.0 | 15.0 | 0.00 | 0.06 | 0.00 | 89 | 1011.4 |
| 20260902101538 | 82 | 254 | 10.0 | 15.0 | 0.00 | 0.06 | 0.00 | 89 | 1011.5 |
| 20260902101437 | 82 | 255 | 9.0 | 15.0 | 0.00 | 0.06 | 0.00 | 89 | 1011.4 |
| 20260902101337 | 82 | 245 | 8.0 | 15.0 | 0.00 | 0.06 | 0.00 | 89 | 1011.4 |
| 20260902101238 | 82 | 254 | 8.0 | 15.0 | 0.00 | 0.06 | 0.00 | 89 | 1011.4 |
| 20260902101138 | 82 | 248 | 9.0 | 15.0 | 0.00 | 0.06 | 0.00 | 89 | 1011.3 |
| 20260902101039 | 82 | 257 | 10.0 | 15.0 | 0.00 | 0.06 | 0.00 | 89 | 1011.4 |
| 20260902100938 | 82 | 285 | 10.0 | 15.0 | 0.00 | 0.06 | 0.00 | 89 | 1011.4 |
| 20260902100840 | 82 | 223 | 10.0 | 15.0 | 0.00 | 0.06 | 0.00 | 89 | 1011.3 |
| 20260902100740 | 82 | 233 | 9.0 | 15.0 | 0.00 | 0.06 | 0.00 | 89 | 1011.4 |
| 20260902100637 | 82 | 258 | 9.0 | 15.0 | 0.00 | 0.06 | 0.00 | 89 | 1011.3 |
| 20260902100538 | 82 | 279 | 10.0 | 15.0 | 0.00 | 0.06 | 0.00 | 89 | 1011.3 |
| 20260902100437 | 82 | 255 | 9.0 | 15.0 | 0.00 | 0.06 | 0.00 | 89 | 1011.4 |
| 20260902100338 | 82 | 219 | 8.0 | 17.0 | 0.00 | 0.06 | 0.00 | 89 | 1011.3 |
| 20260902100239 | 82 | 224 | 9.0 | 17.0 | 0.00 | 0.06 | 0.00 | 89 | 1011.3 |
| 20260902100139 | 82 | 271 | 9.0 | 17.0 | 0.00 | 0.06 | 0.00 | 89 | 1011.3 |
| 20260902100038 | 82 | 223 | 8.0 | 17.0 | 0.00 | 0.06 | 0.00 | 89 | 1011.3 |
| 20260902095936 | 82 | 261 | 7.0 | 17.0 | 0.00 | 0.06 | 0.00 | 89 | 1011.3 |
| 20260902095838 | 82 | 247 | 7.0 | 17.0 | 0.00 | 0.06 | 0.00 | 89 | 1011.3 |
| 20260902095737 | 82 | 235 | 8.0 | 17.0 | 0.00 | 0.06 | 0.00 | 89 | 1011.3 |
| 20260902095637 | 82 | 288 | 10.0 | 17.0 | 0.00 | 0.06 | 0.00 | 89 | 1011.3 |
| 20260902095538 | 82 | 234 | 12.0 | 17.0 | 0.00 | 0.06 | 0.00 | 89 | 1011.3 |
| 20260902095437 | 82 | 217 | 10.0 | 17.0 | 0.00 | 0.06 | 0.00 | 89 | 1011.3 |
| 20260902095336 | 82 | 226 | 9.0 | 17.0 | 0.00 | 0.06 | 0.00 | 89 | 1011.4 |
| 20260902095238 | 82 | 245 | 11.0 | 17.0 | 0.00 | 0.06 | 0.00 | 89 | 1011.3 |
| 20260902095137 | 82 | 219 | 9.0 | 15.0 | 0.00 | 0.06 | 0.00 | 89 | 1011.3 |
| 20260902095036 | 82 | 231 | 10.0 | 15.0 | 0.00 | 0.06 | 0.00 | 89 | 1011.3 |
| 20260902094936 | 82 | 200 | 10.0 | 15.0 | 0.00 | 0.06 | 0.00 | 89 | 1011.3 |
| 20260902094837 | 82 | 243 | 8.0 | 15.0 | 0.00 | 0.06 | 0.00 | 89 | 1011.2 |
| 20260902094737 | 82 | 252 | 8.0 | 15.0 | 0.00 | 0.06 | 0.00 | 89 | 1011.2 |
| 20260902094636 | 82 | 271 | 9.0 | 15.0 | 0.00 | 0.06 | 0.00 | 89 | 1011.3 |
| 20260902094537 | 82 | 216 | 10.0 | 15.0 | 0.00 | 0.06 | 0.00 | 89 | 1011.2 |
| 20260902094438 | 82 | 223 | 10.0 | 15.0 | 0.00 | 0.06 | 0.00 | 89 | 1011.2 |
| 20260902094336 | 82 | 254 | 9.0 | 16.0 | 0.00 | 0.06 | 0.00 | 89 | 1011.2 |
| 20260902094236 | 82 | 264 | 9.0 | 16.0 | 0.00 | 0.06 | 0.00 | 89 | 1011.2 |
| 20260902094138 | 82 | 250 | 11.0 | 17.0 | 0.00 | 0.06 | 0.00 | 89 | 1011.1 |
| 20260902094038 | 82 | 217 | 11.0 | 17.0 | 0.00 | 0.06 | 0.00 | 89 | 1011.1 |
| 20260902093938 | 82 | 262 | 10.0 | 18.0 | 0.00 | 0.06 | 0.00 | 89 | 1011.2 |
| 20260902093836 | 82 | 195 | 9.0 | 18.0 | 0.00 | 0.06 | 0.00 | 89 | 1011.2 |
| 20260902093737 | 82 | 209 | 9.0 | 18.0 | 0.00 | 0.06 | 0.00 | 89 | 1011.2 |
| 20260902093637 | 82 | 226 | 9.0 | 18.0 | 0.00 | 0.06 | 0.00 | 89 | 1011.1 |
| 20260902093538 | 82 | 264 | 9.0 | 18.0 | 0.00 | 0.06 | 0.00 | 88 | 1011.2 |
| 20260902093437 | 82 | 298 | 10.0 | 18.0 | 0.00 | 0.06 | 0.00 | 88 | 1011.1 |
| 20260902093337 | 82 | 221 | 11.0 | 18.0 | 0.00 | 0.06 | 0.00 | 88 | 1011.1 |
| 20260902093237 | 82 | 220 | 10.0 | 18.0 | 0.00 | 0.06 | 0.00 | 88 | 1011.1 |
| 20260902093137 | 82 | 193 | 10.0 | 18.0 | 0.00 | 0.06 | 0.00 | 88 | 1011.1 |
| 20260902093038 | 82 | 255 | 11.0 | 18.0 | 0.00 | 0.06 | 0.00 | 88 | 1011.1 |
| 20260902092938 | 82 | 240 | 10.0 | 18.0 | 0.00 | 0.06 | 0.00 | 88 | 1011.2 |
| 20260902092836 | 82 | 245 | 10.0 | 15.0 | 0.00 | 0.06 | 0.00 | 88 | 1011.2 |
| 20260902092738 | 82 | 272 | 9.0 | 15.0 | 0.00 | 0.06 | 0.00 | 88 | 1011.2 |
| 20260902092636 | 82 | 265 | 9.0 | 15.0 | 0.00 | 0.06 | 0.00 | 88 | 1011.2 |
| 20260902092536 | 82 | 269 | 9.0 | 15.0 | 0.00 | 0.06 | 0.00 | 88 | 1011.2 |
| 20260902092435 | 82 | 235 | 10.0 | 15.0 | 0.00 | 0.06 | 0.00 | 88 | 1011.2 |
| 20260902092337 | 82 | 248 | 10.0 | 17.0 | 0.00 | 0.06 | 0.00 | 88 | 1011.3 |
| 20260902092237 | 82 | 216 | 10.0 | 17.0 | 0.00 | 0.06 | 0.00 | 88 | 1011.2 |
| 20260902092136 | 82 | 238 | 10.0 | 17.0 | 0.00 | 0.06 | 0.00 | 88 | 1011.3 |
| 20260902092039 | 82 | 217 | 9.0 | 17.0 | 0.00 | 0.06 | 0.00 | 88 | 1011.2 |
| 20260902091935 | 82 | 223 | 10.0 | 17.0 | 0.00 | 0.06 | 0.00 | 88 | 1011.1 |
| 20260902091836 | 82 | 252 | 10.0 | 17.0 | 0.00 | 0.06 | 0.00 | 88 | 1011.1 |
| 20260902091738 | 82 | 186 | 11.0 | 17.0 | 0.00 | 0.06 | 0.00 | 88 | 1011.1 |
| 20260902091638 | 82 | 217 | 11.0 | 17.0 | 0.00 | 0.06 | 0.00 | 88 | 1011.1 |
| 20260902091536 | 82 | 237 | 11.0 | 17.0 | 0.00 | 0.06 | 0.00 | 88 | 1011.1 |
| 20260902091436 | 82 | 248 | 11.0 | 17.0 | 0.00 | 0.06 | 0.00 | 88 | 1011.1 |
| 20260902091338 | 82 | 224 | 10.0 | 16.0 | 0.00 | 0.06 | 0.00 | 88 | 1011.1 |
| 20260902091236 | 82 | 230 | 11.0 | 16.0 | 0.00 | 0.06 | 0.00 | 87 | 1011.1 |
| 20260902091136 | 82 | 238 | 12.0 | 16.0 | 0.00 | 0.06 | 0.00 | 87 | 1011.1 |
| 20260902091038 | 82 | 237 | 11.0 | 16.0 | 0.00 | 0.06 | 0.00 | 87 | 1011.1 |
| 20260902090936 | 82 | 220 | 10.0 | 16.0 | 0.00 | 0.06 | 0.00 | 87 | 1011.0 |
| 20260902090835 | 82 | 248 | 11.0 | 16.0 | 0.00 | 0.06 | 0.00 | 87 | 1011.2 |
| 20260902090735 | 82 | 245 | 10.0 | 15.0 | 0.00 | 0.06 | 0.00 | 87 | 1011.1 |
| 20260902090636 | 82 | 226 | 9.0 | 16.0 | 0.00 | 0.06 | 0.00 | 87 | 1011.1 |
| 20260902090536 | 82 | 241 | 10.0 | 17.0 | 0.00 | 0.06 | 0.00 | 87 | 1011.0 |
| 20260902090435 | 82 | 219 | 10.0 | 17.0 | 0.00 | 0.06 | 0.00 | 87 | 1011.1 |
| 20260902090335 | 82 | 244 | 10.0 | 17.0 | 0.00 | 0.06 | 0.00 | 87 | 1011.1 |
| 20260902090236 | 82 | 259 | 10.0 | 17.0 | 0.00 | 0.06 | 0.00 | 87 | 1011.1 |
| 20260902090136 | 82 | 250 | 9.0 | 17.0 | 0.00 | 0.06 | 0.00 | 87 | 1011.1 |
| 20260902090037 | 82 | 261 | 10.0 | 17.0 | 0.00 | 0.06 | 0.00 | 87 | 1011.1 |
| 20260902085936 | 82 | 283 | 10.0 | 17.0 | 0.00 | 0.06 | 0.00 | 87 | 1011.1 |
| 20260902085835 | 82 | 228 | 11.0 | 17.0 | 0.00 | 0.06 | 0.00 | 87 | 1011.1 |
| 20260902085735 | 82 | 231 | 11.0 | 17.0 | 0.00 | 0.06 | 0.00 | 87 | 1011.1 |
| 20260902085635 | 82 | 237 | 10.0 | 17.0 | 0.00 | 0.06 | 0.00 | 87 | 1011.1 |
| 20260902085536 | 82 | 238 | 10.0 | 17.0 | 0.00 | 0.06 | 0.00 | 87 | 1011.1 |
| 20260902085434 | 82 | 264 | 11.0 | 17.0 | 0.00 | 0.06 | 0.00 | 87 | 1011.1 |
| 20260902085332 | 82 | 216 | 11.0 | 17.0 | 0.00 | 0.06 | 0.00 | 87 | 1011.1 |
| 20260902085234 | 82 | 224 | 9.0 | 17.0 | 0.00 | 0.06 | 0.00 | 87 | 1011.1 |
| 20260902085130 | 82 | 243 | 11.0 | 17.0 | 0.00 | 0.06 | 0.00 | 87 | 1011.0 |
| 20260902085031 | 82 | 224 | 11.0 | 17.0 | 0.00 | 0.06 | 0.00 | 87 | 1011.0 |
| 20260902084933 | 82 | 214 | 11.0 | 16.0 | 0.00 | 0.06 | 0.00 | 87 | 1011.0 |
| 20260902084832 | 82 | 224 | 11.0 | 16.0 | 0.00 | 0.06 | 0.00 | 87 | 1011.1 |
| 20260902084731 | 82 | 223 | 11.0 | 16.0 | 0.00 | 0.06 | 0.00 | 87 | 1011.1 |
| 20260902084632 | 82 | 226 | 11.0 | 16.0 | 0.00 | 0.06 | 0.00 | 87 | 1011.1 |
| 20260902084532 | 82 | 221 | 11.0 | 16.0 | 0.00 | 0.06 | 0.00 | 86 | 1011.0 |
| 20260902084431 | 82 | 230 | 10.0 | 16.0 | 0.00 | 0.06 | 0.00 | 87 | 1011.1 |
| 20260902084331 | 82 | 234 | 10.0 | 16.0 | 0.00 | 0.06 | 0.00 | 86 | 1011.1 |
| 20260902084232 | 82 | 275 | 10.0 | 16.0 | 0.00 | 0.06 | 0.00 | 86 | 1011.0 |
| 20260902084132 | 82 | 244 | 9.0 | 16.0 | 0.00 | 0.06 | 0.00 | 86 | 1011.0 |
| 20260902084032 | 82 | 180 | 9.0 | 16.0 | 0.00 | 0.06 | 0.00 | 86 | 1011.1 |
| 20260902083932 | 82 | 269 | 9.0 | 16.0 | 0.00 | 0.06 | 0.00 | 86 | 1011.1 |
| 20260902083830 | 82 | 231 | 9.0 | 16.0 | 0.00 | 0.06 | 0.00 | 86 | 1011.1 |
| 20260902083730 | 82 | 235 | 10.0 | 16.0 | 0.00 | 0.06 | 0.00 | 86 | 1011.1 |
| 20260902083631 | 82 | 250 | 11.0 | 16.0 | 0.00 | 0.06 | 0.00 | 86 | 1011.0 |
| 20260902083531 | 82 | 247 | 11.0 | 16.0 | 0.00 | 0.06 | 0.00 | 86 | 1011.1 |
| 20260902083432 | 82 | 264 | 10.0 | 16.0 | 0.00 | 0.06 | 0.00 | 86 | 1011.1 |
| 20260902083330 | 82 | 250 | 9.0 | 15.0 | 0.00 | 0.06 | 0.00 | 86 | 1011.1 |
| 20260902083232 | 82 | 221 | 8.0 | 15.0 | 0.00 | 0.06 | 0.00 | 86 | 1011.1 |
| 20260902083132 | 82 | 240 | 8.0 | 15.0 | 0.00 | 0.06 | 0.00 | 86 | 1011.1 |
| 20260902083032 | 82 | 241 | 9.0 | 15.0 | 0.00 | 0.06 | 0.00 | 86 | 1011.2 |
| 20260902082932 | 82 | 212 | 10.0 | 14.0 | 0.00 | 0.06 | 0.00 | 86 | 1011.2 |
| 20260902082832 | 82 | 241 | 11.0 | 14.0 | 0.00 | 0.06 | 0.00 | 86 | 1011.2 |
| 20260902082732 | 82 | 227 | 9.0 | 14.0 | 0.00 | 0.06 | 0.00 | 86 | 1011.2 |
| 20260902082631 | 82 | 202 | 10.0 | 15.0 | 0.00 | 0.06 | 0.00 | 86 | 1011.3 |
| 20260902082532 | 82 | 245 | 9.0 | 15.0 | 0.00 | 0.06 | 0.00 | 86 | 1011.2 |
| 20260902082433 | 82 | 224 | 8.0 | 15.0 | 0.00 | 0.06 | 0.00 | 86 | 1011.2 |
| 20260902082331 | 82 | 250 | 8.0 | 15.0 | 0.00 | 0.06 | 0.00 | 86 | 1011.1 |
| 20260902082232 | 82 | 244 | 8.0 | 15.0 | 0.00 | 0.06 | 0.00 | 86 | 1011.1 |
| 20260902082131 | 82 | 235 | 8.0 | 15.0 | 0.00 | 0.06 | 0.00 | 86 | 1011.1 |
| 20260902082031 | 82 | 261 | 9.0 | 15.0 | 0.00 | 0.06 | 0.00 | 86 | 1011.1 |
| 20260902081933 | 82 | 251 | 9.0 | 15.0 | 0.00 | 0.06 | 0.00 | 86 | 1011.1 |
| 20260902081832 | 82 | 241 | 10.0 | 15.0 | 0.00 | 0.06 | 0.00 | 86 | 1011.1 |
| 20260902081732 | 82 | 226 | 10.0 | 15.0 | 0.00 | 0.06 | 0.00 | 86 | 1011.1 |
| 20260902081631 | 82 | 228 | 9.0 | 15.0 | 0.00 | 0.06 | 0.00 | 86 | 1011.2 |
| 20260902081532 | 82 | 238 | 9.0 | 15.0 | 0.00 | 0.06 | 0.00 | 85 | 1011.2 |
| 20260902081431 | 82 | 230 | 10.0 | 15.0 | 0.00 | 0.06 | 0.00 | 85 | 1011.1 |
| 20260902081331 | 82 | 243 | 11.0 | 15.0 | 0.00 | 0.06 | 0.00 | 85 | 1011.1 |
| 20260902081232 | 82 | 235 | 11.0 | 14.0 | 0.00 | 0.06 | 0.00 | 85 | 1011.2 |
| 20260902081132 | 82 | 234 | 10.0 | 14.0 | 0.00 | 0.06 | 0.00 | 85 | 1011.2 |
| 20260902081030 | 82 | 230 | 9.0 | 14.0 | 0.00 | 0.06 | 0.00 | 85 | 1011.1 |
| 20260902080931 | 82 | 247 | 8.0 | 13.0 | 0.00 | 0.06 | 0.00 | 85 | 1011.2 |
| 20260902080833 | 82 | 233 | 7.0 | 13.0 | 0.00 | 0.06 | 0.00 | 85 | 1011.1 |
| 20260902080732 | 82 | 254 | 8.0 | 13.0 | 0.00 | 0.06 | 0.00 | 85 | 1011.1 |
| 20260902080632 | 82 | 228 | 8.0 | 13.0 | 0.00 | 0.06 | 0.00 | 85 | 1011.2 |
| 20260902080533 | 82 | 217 | 7.0 | 13.0 | 0.00 | 0.06 | 0.00 | 85 | 1011.2 |
| 20260902080432 | 82 | 207 | 8.0 | 13.0 | 0.00 | 0.06 | 0.00 | 85 | 1011.2 |
| 20260902080331 | 82 | 254 | 9.0 | 13.0 | 0.00 | 0.06 | 0.00 | 85 | 1011.2 |
| 20260902080231 | 82 | 221 | 9.0 | 13.0 | 0.00 | 0.06 | 0.00 | 85 | 1011.2 |
| 20260902080131 | 81 | 217 | 9.0 | 12.0 | 0.00 | 0.06 | 0.00 | 85 | 1011.2 |
| 20260902080032 | 82 | 220 | 8.0 | 12.0 | 0.00 | 0.06 | 0.00 | 84 | 1011.2 |
| 20260902075932 | 81 | 221 | 8.0 | 11.0 | 0.00 | 0.06 | 0.00 | 84 | 1011.2 |
| 20260902075832 | 81 | 235 | 7.0 | 11.0 | 0.00 | 0.06 | 0.00 | 84 | 1011.2 |
| 20260902075731 | 81 | 244 | 7.0 | 11.0 | 0.00 | 0.06 | 0.00 | 84 | 1011.2 |
| 20260902075631 | 81 | 245 | 6.0 | 11.0 | 0.00 | 0.06 | 0.00 | 84 | 1011.2 |
| 20260902075533 | 81 | 224 | 6.0 | 11.0 | 0.00 | 0.06 | 0.00 | 83 | 1011.2 |
| 20260902075431 | 81 | 262 | 7.0 | 11.0 | 0.00 | 0.06 | 0.00 | 83 | 1011.2 |
| 20260902075332 | 81 | 252 | 7.0 | 11.0 | 0.00 | 0.06 | 0.00 | 83 | 1011.2 |
| 20260902075230 | 81 | 238 | 7.0 | 11.0 | 0.00 | 0.06 | 0.00 | 83 | 1011.2 |
| 20260902075131 | 81 | 244 | 7.0 | 11.0 | 0.00 | 0.06 | 0.00 | 83 | 1011.1 |
| 20260902075031 | 81 | 244 | 7.0 | 11.0 | 0.00 | 0.06 | 0.00 | 83 | 1011.2 |
| 20260902074932 | 81 | 227 | 7.0 | 11.0 | 0.00 | 0.06 | 0.00 | 83 | 1011.1 |
| 20260902074832 | 82 | 243 | 6.0 | 11.0 | 0.00 | 0.06 | 0.00 | 82 | 1011.2 |
| 20260902074732 | 82 | 234 | 6.0 | 12.0 | 0.00 | 0.06 | 0.00 | 82 | 1011.2 |
| 20260902074632 | 82 | 238 | 6.0 | 12.0 | 0.00 | 0.06 | 0.00 | 82 | 1011.2 |
| 20260902074531 | 82 | 226 | 6.0 | 12.0 | 0.00 | 0.06 | 0.00 | 82 | 1011.3 |
| 20260902074432 | 82 | 244 | 6.0 | 12.0 | 0.00 | 0.06 | 0.00 | 82 | 1011.2 |
| 20260902074334 | 82 | 258 | 7.0 | 12.0 | 0.00 | 0.06 | 0.00 | 82 | 1011.3 |
| 20260902074230 | 82 | 255 | 7.0 | 12.0 | 0.00 | 0.06 | 0.00 | 82 | 1011.2 |
| 20260902074131 | 82 | 227 | 6.0 | 12.0 | 0.00 | 0.06 | 0.00 | 81 | 1011.2 |
| 20260902074031 | 82 | 259 | 7.0 | 12.0 | 0.00 | 0.06 | 0.00 | 81 | 1011.4 |
| 20260902073931 | 82 | 243 | 7.0 | 12.0 | 0.00 | 0.06 | 0.00 | 81 | 1011.3 |
| 20260902073833 | 82 | 251 | 7.0 | 12.0 | 0.00 | 0.06 | 0.00 | 81 | 1011.3 |
| 20260902073732 | 82 | 223 | 6.0 | 11.0 | 0.00 | 0.06 | 0.00 | 81 | 1011.3 |
| 20260902073631 | 82 | 217 | 6.0 | 11.0 | 0.00 | 0.06 | 0.00 | 81 | 1011.3 |
| 20260902073531 | 82 | 244 | 6.0 | 11.0 | 0.00 | 0.06 | 0.00 | 81 | 1011.3 |
| 20260902073432 | 82 | 251 | 7.0 | 11.0 | 0.00 | 0.06 | 0.00 | 81 | 1011.4 |
| 20260902073331 | 82 | 217 | 7.0 | 11.0 | 0.00 | 0.06 | 0.00 | 80 | 1011.4 |
| 20260902073231 | 82 | 219 | 7.0 | 11.0 | 0.00 | 0.06 | 0.00 | 80 | 1011.3 |
| 20260902073134 | 82 | 264 | 7.0 | 11.0 | 0.00 | 0.06 | 0.00 | 80 | 1011.3 |
| 20260902073031 | 82 | 235 | 6.0 | 11.0 | 0.00 | 0.06 | 0.00 | 80 | 1011.4 |
| 20260902072931 | 82 | 206 | 7.0 | 11.0 | 0.00 | 0.06 | 0.00 | 80 | 1011.4 |
| 20260902072832 | 82 | 206 | 7.0 | 11.0 | 0.00 | 0.06 | 0.00 | 80 | 1011.4 |
| 20260902072733 | 82 | 241 | 7.0 | 11.0 | 0.00 | 0.06 | 0.00 | 81 | 1011.4 |
| 20260902072631 | 82 | 257 | 7.0 | 11.0 | 0.00 | 0.06 | 0.00 | 81 | 1011.5 |
| 20260902072531 | 82 | 228 | 6.0 | 11.0 | 0.00 | 0.06 | 0.00 | 81 | 1011.5 |
| 20260902072433 | 82 | 230 | 6.0 | 11.0 | 0.00 | 0.06 | 0.00 | 81 | 1011.4 |
| 20260902072331 | 82 | 243 | 6.0 | 11.0 | 0.00 | 0.06 | 0.00 | 81 | 1011.5 |
| 20260902072230 | 82 | 210 | 6.0 | 11.0 | 0.00 | 0.06 | 0.00 | 81 | 1011.4 |
| 20260902072131 | 82 | 251 | 6.0 | 11.0 | 0.00 | 0.06 | 0.00 | 81 | 1011.5 |
| 20260902072032 | 82 | 241 | 6.0 | 11.0 | 0.00 | 0.06 | 0.00 | 81 | 1011.5 |
| 20260902071931 | 82 | 230 | 6.0 | 12.0 | 0.00 | 0.06 | 0.00 | 81 | 1011.5 |
| 20260902071832 | 82 | 217 | 7.0 | 12.0 | 0.00 | 0.06 | 0.00 | 81 | 1011.4 |
| 20260902071732 | 82 | 261 | 7.0 | 12.0 | 0.00 | 0.06 | 0.00 | 81 | 1011.5 |
| 20260902071631 | 82 | 213 | 7.0 | 12.0 | 0.00 | 0.06 | 0.00 | 81 | 1011.5 |
| 20260902071531 | 82 | 241 | 6.0 | 12.0 | 0.00 | 0.06 | 0.00 | 81 | 1011.5 |
| 20260902071432 | 82 | 257 | 7.0 | 12.0 | 0.00 | 0.06 | 0.00 | 82 | 1011.5 |
| 20260902071332 | 82 | 245 | 6.0 | 12.0 | 0.00 | 0.06 | 0.00 | 82 | 1011.6 |
| 20260902071232 | 82 | 231 | 7.0 | 12.0 | 0.00 | 0.06 | 0.00 | 82 | 1011.5 |
| 20260902071131 | 82 | 265 | 7.0 | 12.0 | 0.00 | 0.06 | 0.00 | 82 | 1011.5 |
| 20260902071033 | 82 | 245 | 8.0 | 12.0 | 0.00 | 0.06 | 0.00 | 82 | 1011.5 |
| 20260902070931 | 82 | 213 | 7.0 | 12.0 | 0.00 | 0.06 | 0.00 | 82 | 1011.6 |
| 20260902070831 | 82 | 292 | 6.0 | 11.0 | 0.00 | 0.06 | 0.00 | 82 | 1011.4 |
| 20260902070731 | 82 | 243 | 6.0 | 11.0 | 0.00 | 0.06 | 0.00 | 82 | 1011.5 |
| 20260902070630 | 82 | 244 | 6.0 | 11.0 | 0.00 | 0.06 | 0.00 | 82 | 1011.5 |
| 20260902070530 | 82 | 258 | 7.0 | 11.0 | 0.00 | 0.06 | 0.00 | 82 | 1011.5 |
| 20260902070431 | 82 | 264 | 7.0 | 11.0 | 0.00 | 0.06 | 0.00 | 82 | 1011.5 |
| 20260902070336 | 82 | 227 | 7.0 | 11.0 | 0.00 | 0.06 | 0.00 | 82 | 1011.5 |
| 20260902070234 | 82 | 223 | 7.0 | 11.0 | 0.00 | 0.06 | 0.00 | 82 | 1011.4 |
| 20260902070132 | 82 | 217 | 7.0 | 11.0 | 0.00 | 0.06 | 0.00 | 82 | 1011.5 |
| 20260902070032 | 81 | 244 | 6.0 | 7.0 | 0.00 | 0.06 | 0.00 | 82 | 1011.5 |
| 20260902065931 | 81 | 217 | 6.0 | 7.0 | 0.00 | 0.06 | 0.00 | 82 | 1011.4 |
| 20260902065831 | 81 | 237 | 5.0 | 7.0 | 0.00 | 0.06 | 0.00 | 82 | 1011.4 |
| 20260902065732 | 81 | 238 | 4.0 | 7.0 | 0.00 | 0.06 | 0.00 | 82 | 1011.4 |
| 20260902065633 | 81 | 227 | 4.0 | 9.0 | 0.00 | 0.06 | 0.00 | 82 | 1011.4 |
| 20260902065532 | 81 | 275 | 4.0 | 9.0 | 0.00 | 0.06 | 0.00 | 82 | 1011.4 |
| 20260902065431 | 81 | 247 | 4.0 | 9.0 | 0.00 | 0.06 | 0.00 | 82 | 1011.4 |
| 20260902065333 | 81 | 251 | 3.0 | 9.0 | 0.00 | 0.06 | 0.00 | 82 | 1011.4 |
| 20260902065231 | 81 | 252 | 3.0 | 9.0 | 0.00 | 0.06 | 0.00 | 82 | 1011.4 |
| 20260902065133 | 82 | 223 | 3.0 | 9.0 | 0.00 | 0.06 | 0.00 | 82 | 1011.5 |
| 20260902065032 | 82 | 268 | 4.0 | 9.0 | 0.00 | 0.06 | 0.00 | 82 | 1011.5 |
| 20260902064932 | 82 | 234 | 5.0 | 9.0 | 0.00 | 0.06 | 0.00 | 82 | 1011.4 |
| 20260902064830 | 82 | 230 | 5.0 | 9.0 | 0.00 | 0.06 | 0.00 | 82 | 1011.4 |
| 20260902064730 | 82 | 231 | 4.0 | 9.0 | 0.00 | 0.06 | 0.00 | 82 | 1011.4 |
| 20260902064628 | 82 | 227 | 4.0 | 9.0 | 0.00 | 0.06 | 0.00 | 82 | 1011.3 |
| 20260902064526 | 82 | 265 | 4.0 | 9.0 | 0.00 | 0.06 | 0.00 | 82 | 1011.4 |
| 20260902064425 | 82 | 237 | 5.0 | 9.0 | 0.00 | 0.06 | 0.00 | 81 | 1011.4 |
| 20260902064325 | 82 | 265 | 5.0 | 9.0 | 0.00 | 0.06 | 0.00 | 81 | 1011.5 |
| 20260902064222 | 82 | 262 | 5.0 | 9.0 | 0.00 | 0.06 | 0.00 | 81 | 1011.5 |
| 20260902064120 | 82 | 258 | 6.0 | 9.0 | 0.00 | 0.06 | 0.00 | 81 | 1011.5 |
| 20260902064018 | 82 | 248 | 5.0 | 9.0 | 0.00 | 0.06 | 0.00 | 81 | 1011.5 |
| 20260902063919 | 82 | 257 | 5.0 | 9.0 | 0.00 | 0.06 | 0.00 | 81 | 1011.5 |
| 20260902063816 | 82 | 243 | 5.0 | 9.0 | 0.00 | 0.06 | 0.00 | 81 | 1011.6 |
| 20260902063716 | 82 | 233 | 5.0 | 9.0 | 0.00 | 0.06 | 0.00 | 81 | 1011.5 |
| 20260902063613 | 82 | 235 | 6.0 | 9.0 | 0.00 | 0.06 | 0.00 | 81 | 1011.5 |
| 20260902063513 | 82 | 238 | 6.0 | 9.0 | 0.00 | 0.06 | 0.00 | 81 | 1011.5 |
| 20260902063409 | 82 | 241 | 6.0 | 9.0 | 0.00 | 0.06 | 0.00 | 81 | 1011.4 |
| 20260902063307 | 82 | 240 | 6.0 | 7.0 | 0.00 | 0.06 | 0.00 | 81 | 1011.4 |
| 20260902063205 | 82 | 237 | 6.0 | 7.0 | 0.00 | 0.06 | 0.00 | 81 | 1011.5 |
| 20260902063103 | 82 | 235 | 6.0 | 7.0 | 0.00 | 0.06 | 0.00 | 81 | 1011.5 |
| 20260902063003 | 82 | 235 | 5.0 | 6.0 | 0.00 | 0.06 | 0.00 | 81 | 1011.4 |
| 20260902062904 | 82 | 252 | 4.0 | 6.0 | 0.00 | 0.06 | 0.00 | 81 | 1011.5 |
| 20260902062802 | 82 | 248 | 4.0 | 6.0 | 0.00 | 0.06 | 0.00 | 81 | 1011.5 |
| 20260902062703 | 82 | 292 | 5.0 | 6.0 | 0.00 | 0.06 | 0.00 | 81 | 1011.4 |
| 20260902062602 | 82 | 237 | 4.0 | 7.0 | 0.00 | 0.06 | 0.00 | 81 | 1011.5 |
| 20260902062503 | 82 | 275 | 4.0 | 7.0 | 0.00 | 0.06 | 0.00 | 81 | 1011.5 |
| 20260902062404 | 82 | 220 | 4.0 | 7.0 | 0.00 | 0.06 | 0.00 | 81 | 1011.5 |
| 20260902062305 | 82 | 207 | 3.0 | 7.0 | 0.00 | 0.06 | 0.00 | 81 | 1011.5 |
| 20260902062202 | 82 | 271 | 4.0 | 7.0 | 0.00 | 0.06 | 0.00 | 81 | 1011.5 |
| 20260902062102 | 82 | 266 | 4.0 | 7.0 | 0.00 | 0.06 | 0.00 | 81 | 1011.5 |
| 20260902062005 | 82 | 276 | 3.0 | 7.0 | 0.00 | 0.06 | 0.00 | 81 | 1011.5 |
| 20260902061903 | 82 | 266 | 3.0 | 7.0 | 0.00 | 0.06 | 0.00 | 81 | 1011.4 |
| 20260902061802 | 82 | 266 | 4.0 | 7.0 | 0.00 | 0.06 | 0.00 | 81 | 1011.4 |
| 20260902061702 | 82 | 292 | 5.0 | 7.0 | 0.00 | 0.06 | 0.00 | 81 | 1011.4 |
| 20260902061602 | 82 | 290 | 5.0 | 7.0 | 0.00 | 0.06 | 0.00 | 81 | 1011.4 |
| 20260902061502 | 82 | 259 | 4.0 | 7.0 | 0.00 | 0.06 | 0.00 | 81 | 1011.4 |
| 20260902061402 | 82 | 286 | 4.0 | 7.0 | 0.00 | 0.06 | 0.00 | 81 | 1011.4 |
| 20260902061304 | 82 | 272 | 4.0 | 7.0 | 0.00 | 0.06 | 0.00 | 81 | 1011.3 |
| 20260902061202 | 82 | 262 | 4.0 | 7.0 | 0.00 | 0.06 | 0.00 | 81 | 1011.3 |
| 20260902061103 | 82 | 265 | 3.0 | 7.0 | 0.00 | 0.06 | 0.00 | 81 | 1011.3 |
| 20260902061005 | 82 | 313 | 4.0 | 7.0 | 0.00 | 0.06 | 0.00 | 81 | 1011.2 |
| 20260902060903 | 82 | 276 | 4.0 | 7.0 | 0.00 | 0.06 | 0.00 | 81 | 1011.3 |
| 20260902060801 | 82 | 296 | 5.0 | 9.0 | 0.00 | 0.06 | 0.00 | 81 | 1011.2 |
| 20260902060701 | 82 | 292 | 5.0 | 9.0 | 0.00 | 0.06 | 0.00 | 81 | 1011.3 |
| 20260902060602 | 82 | 262 | 5.0 | 9.0 | 0.00 | 0.06 | 0.00 | 81 | 1011.3 |
| 20260902060502 | 82 | 283 | 5.0 | 9.0 | 0.00 | 0.06 | 0.00 | 81 | 1011.2 |
| 20260902060402 | 82 | 275 | 4.0 | 9.0 | 0.00 | 0.06 | 0.00 | 81 | 1011.1 |
| 20260902060302 | 82 | 259 | 4.0 | 9.0 | 0.00 | 0.06 | 0.00 | 81 | 1011.2 |
| 20260902060203 | 82 | 262 | 4.0 | 9.0 | 0.00 | 0.06 | 0.00 | 81 | 1011.2 |
| 20260902060105 | 82 | 288 | 4.0 | 9.0 | 0.00 | 0.06 | 0.00 | 81 | 1011.2 |
| 20260902060002 | 82 | 271 | 5.0 | 9.0 | 0.00 | 0.06 | 0.00 | 81 | 1011.2 |
| 20260902055903 | 82 | 269 | 5.0 | 9.0 | 0.00 | 0.06 | 0.00 | 81 | 1011.2 |
| 20260902055802 | 82 | 262 | 5.0 | 9.0 | 0.00 | 0.06 | 0.00 | 81 | 1011.1 |
| 20260902055703 | 82 | 272 | 5.0 | 10.0 | 0.00 | 0.06 | 0.00 | 81 | 1011.1 |
| 20260902055603 | 82 | 275 | 5.0 | 10.0 | 0.00 | 0.06 | 0.00 | 81 | 1011.1 |
| 20260902055502 | 82 | 247 | 5.0 | 10.0 | 0.00 | 0.06 | 0.00 | 81 | 1011.2 |
| 20260902055403 | 82 | 285 | 5.0 | 10.0 | 0.00 | 0.06 | 0.00 | 82 | 1011.0 |
| 20260902055306 | 82 | 275 | 6.0 | 10.0 | 0.00 | 0.06 | 0.00 | 81 | 1011.1 |
| 20260902055203 | 82 | 290 | 6.0 | 10.0 | 0.00 | 0.06 | 0.00 | 82 | 1011.1 |
| 20260902055100 | 82 | 317 | 5.0 | 10.0 | 0.00 | 0.06 | 0.00 | 82 | 1011.1 |
| 20260902055000 | 81 | 254 | 6.0 | 10.0 | 0.00 | 0.06 | 0.00 | 82 | 1011.1 |
| 20260902054858 | 81 | 230 | 7.0 | 10.0 | 0.00 | 0.06 | 0.00 | 82 | 1011.1 |
| 20260902054756 | 81 | 259 | 6.0 | 10.0 | 0.00 | 0.06 | 0.00 | 82 | 1011.2 |
| 20260902054653 | 81 | 259 | 5.0 | 10.0 | 0.00 | 0.06 | 0.00 | 82 | 1011.2 |
| 20260902054554 | 81 | 259 | 5.0 | 10.0 | 0.00 | 0.06 | 0.00 | 82 | 1011.2 |
| 20260902054451 | 81 | 276 | 4.0 | 10.0 | 0.00 | 0.06 | 0.00 | 82 | 1011.2 |
| 20260902054349 | 81 | 290 | 4.0 | 10.0 | 0.00 | 0.06 | 0.00 | 82 | 1011.2 |
| 20260902054249 | 81 | 259 | 5.0 | 10.0 | 0.00 | 0.06 | 0.00 | 82 | 1011.2 |
| 20260902054147 | 81 | 268 | 6.0 | 10.0 | 0.00 | 0.06 | 0.00 | 82 | 1011.3 |
| 20260902054044 | 81 | 245 | 5.0 | 9.0 | 0.00 | 0.06 | 0.00 | 82 | 1011.2 |
| 20260902053945 | 81 | 223 | 5.0 | 9.0 | 0.00 | 0.06 | 0.00 | 83 | 1011.3 |
| 20260902053843 | 81 | 262 | 5.0 | 9.0 | 0.00 | 0.06 | 0.00 | 83 | 1011.2 |
| 20260902053741 | 81 | 244 | 4.0 | 9.0 | 0.00 | 0.06 | 0.00 | 83 | 1011.2 |
| 20260902053640 | 81 | 235 | 5.0 | 9.0 | 0.00 | 0.06 | 0.00 | 83 | 1011.2 |
| 20260902053539 | 81 | 282 | 5.0 | 9.0 | 0.00 | 0.06 | 0.00 | 83 | 1011.3 |
| 20260902053435 | 81 | 245 | 4.0 | 9.0 | 0.00 | 0.06 | 0.00 | 83 | 1011.3 |
| 20260902053335 | 81 | 244 | 5.0 | 9.0 | 0.00 | 0.06 | 0.00 | 83 | 1011.2 |
| 20260902053232 | 81 | 250 | 6.0 | 9.0 | 0.00 | 0.06 | 0.00 | 83 | 1011.3 |
| 20260902053134 | 81 | 241 | 6.0 | 9.0 | 0.00 | 0.06 | 0.00 | 83 | 1011.2 |
| 20260902053031 | 81 | 254 | 5.0 | 9.0 | 0.00 | 0.06 | 0.00 | 83 | 1011.3 |
| 20260902052931 | 81 | 237 | 5.0 | 9.0 | 0.00 | 0.06 | 0.00 | 83 | 1011.3 |
| 20260902052833 | 81 | 223 | 5.0 | 9.0 | 0.00 | 0.06 | 0.00 | 83 | 1011.3 |
| 20260902052732 | 81 | 247 | 4.0 | 9.0 | 0.00 | 0.06 | 0.00 | 83 | 1011.3 |
| 20260902052631 | 81 | 245 | 4.0 | 10.0 | 0.00 | 0.06 | 0.00 | 83 | 1011.3 |
| 20260902052531 | 81 | 264 | 5.0 | 10.0 | 0.00 | 0.06 | 0.00 | 83 | 1011.3 |
| 20260902052432 | 81 | 258 | 5.0 | 10.0 | 0.00 | 0.06 | 0.00 | 83 | 1011.3 |
| 20260902052332 | 81 | 250 | 4.0 | 10.0 | 0.00 | 0.06 | 0.00 | 83 | 1011.3 |
| 20260902052230 | 81 | 264 | 5.0 | 10.0 | 0.00 | 0.06 | 0.00 | 83 | 1011.3 |
| 20260902052133 | 81 | 252 | 5.0 | 10.0 | 0.00 | 0.06 | 0.00 | 83 | 1011.2 |
| 20260902052032 | 81 | 292 | 4.0 | 11.0 | 0.00 | 0.06 | 0.00 | 83 | 1011.2 |
| 20260902051932 | 81 | 281 | 6.0 | 11.0 | 0.00 | 0.06 | 0.00 | 84 | 1011.1 |
| 20260902051832 | 81 | 283 | 6.0 | 11.0 | 0.00 | 0.06 | 0.00 | 84 | 1011.2 |
| 20260902051731 | 81 | 243 | 6.0 | 11.0 | 0.00 | 0.06 | 0.00 | 84 | 1011.2 |
| 20260902051632 | 81 | 217 | 6.0 | 11.0 | 0.00 | 0.06 | 0.00 | 84 | 1011.1 |
| 20260902051531 | 81 | 272 | 5.0 | 11.0 | 0.00 | 0.06 | 0.00 | 84 | 1011.1 |
| 20260902051431 | 81 | 295 | 5.0 | 11.0 | 0.00 | 0.06 | 0.00 | 84 | 1011.1 |
| 20260902051332 | 81 | 210 | 6.0 | 11.0 | 0.00 | 0.06 | 0.00 | 84 | 1011.1 |
| 20260902051231 | 81 | 268 | 7.0 | 11.0 | 0.00 | 0.06 | 0.00 | 84 | 1011.1 |
| 20260902051132 | 81 | 261 | 8.0 | 11.0 | 0.00 | 0.06 | 0.00 | 84 | 1011.1 |
| 20260902051033 | 81 | 261 | 6.0 | 10.0 | 0.00 | 0.06 | 0.00 | 84 | 1011.2 |
| 20260902050931 | 81 | 271 | 6.0 | 10.0 | 0.00 | 0.06 | 0.00 | 84 | 1011.3 |
| 20260902050831 | 81 | 251 | 7.0 | 10.0 | 0.00 | 0.06 | 0.00 | 84 | 1011.3 |
| 20260902050731 | 81 | 248 | 6.0 | 10.0 | 0.00 | 0.06 | 0.00 | 84 | 1011.3 |
| 20260902050631 | 81 | 217 | 6.0 | 10.0 | 0.00 | 0.06 | 0.00 | 84 | 1011.4 |
| 20260902050531 | 81 | 227 | 6.0 | 10.0 | 0.00 | 0.06 | 0.00 | 84 | 1011.4 |
| 20260902050432 | 81 | 243 | 6.0 | 10.0 | 0.00 | 0.06 | 0.00 | 84 | 1011.5 |
| 20260902050331 | 81 | 264 | 6.0 | 10.0 | 0.00 | 0.06 | 0.00 | 84 | 1011.4 |
| 20260902050232 | 81 | 258 | 6.0 | 10.0 | 0.00 | 0.06 | 0.00 | 84 | 1011.5 |
| 20260902050131 | 81 | 250 | 6.0 | 10.0 | 0.00 | 0.06 | 0.00 | 84 | 1011.5 |
| 20260902050032 | 81 | 259 | 6.0 | 10.0 | 0.00 | 0.06 | 0.00 | 84 | 1011.4 |
| 20260902045931 | 81 | 251 | 6.0 | 10.0 | 0.00 | 0.06 | 0.06 | 84 | 1011.4 |
| 20260902045831 | 81 | 252 | 6.0 | 10.0 | 0.00 | 0.06 | 0.06 | 84 | 1011.4 |
| 20260902045732 | 81 | 221 | 6.0 | 10.0 | 0.00 | 0.06 | 0.06 | 84 | 1011.4 |
| 20260902045632 | 81 | 257 | 7.0 | 10.0 | 0.00 | 0.06 | 0.06 | 84 | 1011.4 |
| 20260902045531 | 81 | 250 | 6.0 | 10.0 | 0.00 | 0.06 | 0.06 | 84 | 1011.3 |
| 20260902045432 | 81 | 264 | 6.0 | 10.0 | 0.00 | 0.06 | 0.06 | 84 | 1011.3 |
| 20260902045332 | 81 | 264 | 6.0 | 10.0 | 0.00 | 0.06 | 0.06 | 84 | 1011.4 |
| 20260902045231 | 81 | 261 | 6.0 | 10.0 | 0.00 | 0.06 | 0.06 | 84 | 1011.4 |
| 20260902045131 | 81 | 227 | 6.0 | 10.0 | 0.00 | 0.06 | 0.06 | 84 | 1011.4 |
| 20260902045032 | 81 | 255 | 6.0 | 10.0 | 0.00 | 0.06 | 0.06 | 84 | 1011.4 |
| 20260902044931 | 81 | 231 | 5.0 | 9.0 | 0.00 | 0.06 | 0.06 | 84 | 1011.3 |
| 20260902044830 | 81 | 252 | 5.0 | 9.0 | 0.00 | 0.06 | 0.06 | 84 | 1011.4 |
| 20260902044732 | 81 | 0 | 5.0 | 9.0 | 0.00 | 0.06 | 0.06 | 84 | 1011.4 |
| 20260902044630 | 81 | 0 | 4.0 | 9.0 | 0.00 | 0.06 | 0.06 | 84 | 1011.4 |
| 20260902044530 | 81 | 0 | 4.0 | 9.0 | 0.00 | 0.06 | 0.06 | 84 | 1011.3 |
| 20260902044430 | 81 | 0 | 4.0 | 9.0 | 0.00 | 0.06 | 0.06 | 84 | 1011.4 |
| 20260902044332 | 81 | 0 | 5.0 | 9.0 | 0.00 | 0.06 | 0.06 | 84 | 1011.4 |
| 20260902044231 | 81 | 0 | 5.0 | 9.0 | 0.00 | 0.06 | 0.06 | 85 | 1011.4 |
| 20260902044132 | 81 | 0 | 5.0 | 7.0 | 0.00 | 0.06 | 0.06 | 85 | 1011.4 |
| 20260902044032 | 81 | 0 | 4.0 | 7.0 | 0.00 | 0.06 | 0.06 | 85 | 1011.4 |
| 20260902043930 | 81 | 0 | 4.0 | 7.0 | 0.00 | 0.06 | 0.06 | 85 | 1011.4 |
| 20260902043830 | 81 | 0 | 5.0 | 7.0 | 0.00 | 0.06 | 0.06 | 85 | 1011.4 |
| 20260902043729 | 81 | 0 | 5.0 | 7.0 | 0.00 | 0.06 | 0.06 | 85 | 1011.4 |
| 20260902043630 | 81 | 0 | 5.0 | 7.0 | 0.00 | 0.06 | 0.06 | 85 | 1011.4 |
| 20260902043531 | 81 | 0 | 5.0 | 7.0 | 0.00 | 0.06 | 0.06 | 85 | 1011.4 |
| 20260902043430 | 81 | 0 | 5.0 | 7.0 | 0.00 | 0.06 | 0.06 | 85 | 1011.4 |
| 20260902043330 | 81 | 0 | 5.0 | 7.0 | 0.00 | 0.06 | 0.06 | 85 | 1011.4 |
| 20260902043230 | 81 | 0 | 4.0 | 6.0 | 0.00 | 0.06 | 0.06 | 85 | 1011.4 |
| 20260902043129 | 81 | 0 | 4.0 | 6.0 | 0.00 | 0.06 | 0.06 | 85 | 1011.5 |
| 20260902043029 | 81 | 0 | 3.0 | 6.0 | 0.00 | 0.06 | 0.06 | 85 | 1011.5 |
| 20260902042929 | 81 | 0 | 2.0 | 6.0 | 0.00 | 0.06 | 0.06 | 85 | 1011.5 |
| 20260902042830 | 81 | 0 | 3.0 | 7.0 | 0.00 | 0.06 | 0.06 | 85 | 1011.6 |
| 20260902042730 | 81 | 0 | 3.0 | 9.0 | 0.00 | 0.06 | 0.06 | 85 | 1011.5 |
| 20260902042629 | 81 | 0 | 3.0 | 9.0 | 0.00 | 0.06 | 0.06 | 85 | 1011.6 |
| 20260902042530 | 81 | 0 | 4.0 | 9.0 | 0.00 | 0.06 | 0.06 | 85 | 1011.6 |
| 20260902042429 | 81 | 0 | 3.0 | 9.0 | 0.00 | 0.06 | 0.06 | 85 | 1011.5 |
| 20260902042329 | 81 | 0 | 4.0 | 9.0 | 0.00 | 0.06 | 0.06 | 85 | 1011.5 |
| 20260902042231 | 81 | 0 | 4.0 | 9.0 | 0.00 | 0.06 | 0.06 | 86 | 1011.5 |
| 20260902042130 | 81 | 0 | 4.0 | 9.0 | 0.00 | 0.06 | 0.06 | 86 | 1011.6 |
| 20260902042030 | 80 | 0 | 4.0 | 9.0 | 0.00 | 0.06 | 0.06 | 86 | 1011.5 |
| 20260902041929 | 81 | 0 | 5.0 | 9.0 | 0.00 | 0.06 | 0.06 | 86 | 1011.6 |
| 20260902041829 | 80 | 0 | 5.0 | 9.0 | 0.00 | 0.06 | 0.06 | 86 | 1011.5 |
| 20260902041730 | 80 | 0 | 4.0 | 7.0 | 0.00 | 0.06 | 0.06 | 86 | 1011.5 |
| 20260902041631 | 80 | 0 | 4.0 | 7.0 | 0.00 | 0.06 | 0.06 | 86 | 1011.5 |
| 20260902041530 | 80 | 0 | 5.0 | 7.0 | 0.00 | 0.06 | 0.06 | 86 | 1011.5 |
| 20260902041430 | 80 | 0 | 5.0 | 7.0 | 0.00 | 0.06 | 0.06 | 86 | 1011.6 |
| 20260902041329 | 80 | 0 | 4.0 | 7.0 | 0.00 | 0.06 | 0.06 | 86 | 1011.5 |
| 20260902041229 | 80 | 0 | 5.0 | 7.0 | 0.00 | 0.06 | 0.06 | 86 | 1011.5 |
| 20260902041131 | 80 | 0 | 4.0 | 9.0 | 0.00 | 0.06 | 0.06 | 86 | 1011.6 |
| 20260902041029 | 80 | 0 | 4.0 | 9.0 | 0.00 | 0.06 | 0.06 | 86 | 1011.6 |
| 20260902040929 | 80 | 0 | 4.0 | 9.0 | 0.00 | 0.06 | 0.06 | 86 | 1011.6 |
| 20260902040829 | 80 | 0 | 4.0 | 9.0 | 0.00 | 0.06 | 0.06 | 86 | 1011.7 |
| 20260902040729 | 80 | 0 | 4.0 | 9.0 | 0.00 | 0.06 | 0.06 | 87 | 1011.7 |
| 20260902040631 | 80 | 0 | 4.0 | 9.0 | 0.00 | 0.06 | 0.06 | 87 | 1011.7 |
| 20260902040529 | 80 | 0 | 5.0 | 9.0 | 0.00 | 0.06 | 0.06 | 87 | 1011.6 |
| 20260902040431 | 80 | 0 | 5.0 | 9.0 | 0.00 | 0.06 | 0.06 | 87 | 1011.6 |
| 20260902040330 | 80 | 0 | 5.0 | 9.0 | 0.00 | 0.06 | 0.06 | 87 | 1011.6 |
| 20260902040229 | 80 | 0 | 5.0 | 9.0 | 0.00 | 0.06 | 0.06 | 87 | 1011.6 |
| 20260902040129 | 80 | 0 | 5.0 | 7.0 | 0.00 | 0.06 | 0.06 | 87 | 1011.5 |
| 20260902040030 | 80 | 0 | 5.0 | 7.0 | 0.00 | 0.06 | 0.06 | 87 | 1011.6 |
| 20260902035931 | 80 | 0 | 4.0 | 7.0 | 0.00 | 0.06 | 0.06 | 87 | 1011.6 |
| 20260902035830 | 80 | 0 | 4.0 | 7.0 | 0.00 | 0.06 | 0.06 | 87 | 1011.6 |
| 20260902035730 | 80 | 0 | 4.0 | 7.0 | 0.00 | 0.06 | 0.06 | 87 | 1011.5 |
| 20260902035629 | 80 | 0 | 4.0 | 7.0 | 0.00 | 0.06 | 0.06 | 87 | 1011.6 |
| 20260902035529 | 80 | 0 | 4.0 | 7.0 | 0.00 | 0.06 | 0.06 | 88 | 1011.5 |
| 20260902035429 | 80 | 0 | 4.0 | 7.0 | 0.00 | 0.06 | 0.06 | 88 | 1011.5 |
| 20260902035328 | 80 | 0 | 4.0 | 7.0 | 0.00 | 0.06 | 0.06 | 88 | 1011.6 |
| 20260902035228 | 80 | 0 | 4.0 | 7.0 | 0.00 | 0.06 | 0.06 | 88 | 1011.6 |
| 20260902035129 | 80 | 0 | 3.0 | 5.0 | 0.00 | 0.06 | 0.06 | 88 | 1011.6 |
| 20260902035030 | 80 | 0 | 3.0 | 5.0 | 0.00 | 0.06 | 0.06 | 88 | 1011.7 |
| 20260902034929 | 80 | 0 | 3.0 | 5.0 | 0.00 | 0.06 | 0.06 | 88 | 1011.7 |
| 20260902034829 | 80 | 0 | 2.0 | 5.0 | 0.00 | 0.06 | 0.06 | 88 | 1011.7 |
| 20260902034730 | 80 | 0 | 2.0 | 4.0 | 0.00 | 0.06 | 0.06 | 88 | 1011.7 |
| 20260902034628 | 80 | 0 | 3.0 | 5.0 | 0.00 | 0.06 | 0.06 | 88 | 1011.7 |
| 20260902034528 | 80 | 0 | 2.0 | 5.0 | 0.00 | 0.06 | 0.06 | 88 | 1011.7 |
| 20260902034428 | 80 | 0 | 3.0 | 5.0 | 0.00 | 0.06 | 0.06 | 88 | 1011.8 |
| 20260902034329 | 80 | 0 | 3.0 | 5.0 | 0.00 | 0.06 | 0.06 | 88 | 1011.7 |
| 20260902034228 | 80 | 0 | 3.0 | 5.0 | 0.00 | 0.06 | 0.06 | 88 | 1011.7 |
| 20260902034128 | 80 | 0 | 3.0 | 5.0 | 0.00 | 0.06 | 0.06 | 88 | 1011.7 |
| 20260902034029 | 80 | 0 | 2.0 | 6.0 | 0.00 | 0.06 | 0.06 | 88 | 1011.6 |
| 20260902033928 | 80 | 0 | 2.0 | 6.0 | 0.00 | 0.06 | 0.06 | 88 | 1011.6 |
| 20260902033829 | 80 | 0 | 3.0 | 6.0 | 0.00 | 0.06 | 0.06 | 88 | 1011.6 |
| 20260902033728 | 80 | 0 | 3.0 | 6.0 | 0.00 | 0.06 | 0.06 | 88 | 1011.4 |
| 20260902033629 | 80 | 0 | 2.0 | 6.0 | 0.00 | 0.06 | 0.06 | 88 | 1011.5 |
| 20260902033530 | 80 | 0 | 3.0 | 6.0 | 0.00 | 0.06 | 0.06 | 88 | 1011.4 |
| 20260902033428 | 80 | 0 | 3.0 | 6.0 | 0.00 | 0.06 | 0.06 | 88 | 1011.5 |
| 20260902033329 | 80 | 0 | 3.0 | 6.0 | 0.00 | 0.06 | 0.06 | 88 | 1011.5 |
| 20260902033228 | 80 | 0 | 4.0 | 6.0 | 0.00 | 0.06 | 0.06 | 89 | 1011.5 |
| 20260902033130 | 80 | 0 | 3.0 | 6.0 | 0.00 | 0.06 | 0.06 | 89 | 1011.5 |
| 20260902033029 | 80 | 0 | 3.0 | 5.0 | 0.00 | 0.06 | 0.06 | 89 | 1011.5 |
| 20260902032928 | 80 | 0 | 3.0 | 5.0 | 0.00 | 0.06 | 0.06 | 89 | 1011.6 |
| 20260902032828 | 80 | 0 | 2.0 | 5.0 | 0.00 | 0.06 | 0.06 | 89 | 1011.6 |
| 20260902032728 | 80 | 0 | 3.0 | 5.0 | 0.00 | 0.06 | 0.06 | 89 | 1011.6 |
| 20260902032627 | 80 | 0 | 4.0 | 5.0 | 0.00 | 0.06 | 0.06 | 89 | 1011.6 |
| 20260902032528 | 80 | 0 | 3.0 | 5.0 | 0.00 | 0.06 | 0.06 | 89 | 1011.6 |
| 20260902032429 | 80 | 0 | 3.0 | 5.0 | 0.00 | 0.06 | 0.06 | 89 | 1011.7 |
| 20260902032328 | 80 | 0 | 3.0 | 5.0 | 0.00 | 0.06 | 0.06 | 89 | 1011.7 |
| 20260902032230 | 80 | 0 | 4.0 | 5.0 | 0.00 | 0.06 | 0.06 | 89 | 1011.7 |
| 20260902032128 | 80 | 0 | 3.0 | 5.0 | 0.00 | 0.06 | 0.06 | 89 | 1011.7 |
| 20260902032028 | 80 | 0 | 3.0 | 5.0 | 0.00 | 0.06 | 0.06 | 89 | 1011.7 |
| 20260902031929 | 80 | 0 | 3.0 | 5.0 | 0.00 | 0.06 | 0.06 | 89 | 1011.7 |
| 20260902031829 | 80 | 0 | 2.0 | 5.0 | 0.00 | 0.06 | 0.06 | 89 | 1011.8 |
| 20260902031727 | 80 | 0 | 3.0 | 5.0 | 0.00 | 0.06 | 0.06 | 89 | 1011.8 |
| 20260902031629 | 80 | 0 | 3.0 | 5.0 | 0.00 | 0.06 | 0.06 | 89 | 1011.8 |
| 20260902031528 | 80 | 0 | 3.0 | 5.0 | 0.00 | 0.06 | 0.06 | 89 | 1011.7 |
| 20260902031428 | 80 | 0 | 3.0 | 5.0 | 0.00 | 0.06 | 0.06 | 89 | 1011.8 |
| 20260902031327 | 80 | 0 | 2.0 | 4.0 | 0.00 | 0.06 | 0.06 | 89 | 1011.7 |
| 20260902031229 | 80 | 0 | 2.0 | 4.0 | 0.00 | 0.06 | 0.06 | 89 | 1011.7 |
| 20260902031128 | 80 | 0 | 2.0 | 4.0 | 0.00 | 0.06 | 0.06 | 89 | 1011.7 |
| 20260902031027 | 80 | 0 | 2.0 | 5.0 | 0.00 | 0.06 | 0.06 | 89 | 1011.6 |
| 20260902030927 | 80 | 0 | 2.0 | 5.0 | 0.00 | 0.06 | 0.06 | 89 | 1011.5 |
| 20260902030827 | 80 | 0 | 2.0 | 5.0 | 0.00 | 0.06 | 0.06 | 89 | 1011.7 |
| 20260902030729 | 80 | 0 | 2.0 | 5.0 | 0.00 | 0.06 | 0.06 | 89 | 1011.6 |
| 20260902030628 | 80 | 0 | 2.0 | 5.0 | 0.00 | 0.06 | 0.06 | 89 | 1011.6 |
| 20260902030529 | 80 | 0 | 3.0 | 5.0 | 0.00 | 0.06 | 0.06 | 89 | 1011.6 |
| 20260902030427 | 80 | 0 | 3.0 | 5.0 | 0.00 | 0.06 | 0.06 | 89 | 1011.6 |
| 20260902030327 | 80 | 0 | 3.0 | 6.0 | 0.00 | 0.06 | 0.06 | 89 | 1011.5 |
| 20260902030229 | 80 | 0 | 4.0 | 6.0 | 0.00 | 0.06 | 0.06 | 89 | 1011.5 |
| 20260902030129 | 80 | 0 | 3.0 | 6.0 | 0.00 | 0.06 | 0.06 | 89 | 1011.6 |
| 20260902030029 | 80 | 0 | 2.0 | 6.0 | 0.00 | 0.06 | 0.06 | 89 | 1011.5 |
| 20260902025927 | 80 | 0 | 2.0 | 6.0 | 0.00 | 0.06 | 0.06 | 89 | 1011.5 |
| 20260902025829 | 80 | 0 | 2.0 | 6.0 | 0.00 | 0.06 | 0.06 | 89 | 1011.5 |
| 20260902025727 | 80 | 0 | 3.0 | 6.0 | 0.00 | 0.06 | 0.06 | 89 | 1011.5 |
| 20260902025627 | 80 | 0 | 3.0 | 6.0 | 0.00 | 0.06 | 0.06 | 89 | 1011.4 |
| 20260902025528 | 80 | 0 | 4.0 | 6.0 | 0.00 | 0.06 | 0.06 | 89 | 1011.4 |
| 20260902025429 | 80 | 0 | 4.0 | 6.0 | 0.00 | 0.06 | 0.06 | 89 | 1011.4 |
| 20260902025327 | 80 | 0 | 3.0 | 5.0 | 0.00 | 0.06 | 0.06 | 89 | 1011.4 |
| 20260902025227 | 80 | 0 | 3.0 | 3.0 | 0.00 | 0.06 | 0.06 | 90 | 1011.3 |
| 20260902025128 | 80 | 0 | 1.0 | 3.0 | 0.00 | 0.06 | 0.06 | 90 | 1011.4 |
| 20260902025029 | 80 | 0 | 1.0 | 3.0 | 0.00 | 0.06 | 0.06 | 90 | 1011.4 |
| 20260902024928 | 80 | 0 | 1.0 | 3.0 | 0.00 | 0.06 | 0.06 | 90 | 1011.4 |
| 20260902024829 | 80 | 0 | 1.0 | 3.0 | 0.00 | 0.06 | 0.06 | 90 | 1011.4 |
| 20260902024728 | 80 | 0 | 2.0 | 4.0 | 0.00 | 0.06 | 0.06 | 89 | 1011.3 |
| 20260902024627 | 80 | 0 | 2.0 | 4.0 | 0.00 | 0.06 | 0.06 | 89 | 1011.2 |
| 20260902024529 | 80 | 0 | 2.0 | 4.0 | 0.00 | 0.06 | 0.06 | 89 | 1011.2 |
| 20260902024427 | 80 | 0 | 1.0 | 4.0 | 0.00 | 0.06 | 0.06 | 89 | 1011.2 |
| 20260902024328 | 80 | 0 | 2.0 | 4.0 | 0.00 | 0.06 | 0.06 | 89 | 1011.1 |
| 20260902024227 | 80 | 0 | 2.0 | 5.0 | 0.00 | 0.06 | 0.06 | 89 | 1011.1 |
| 20260902024128 | 80 | 0 | 2.0 | 5.0 | 0.00 | 0.06 | 0.06 | 89 | 1011.1 |
| 20260902024027 | 80 | 0 | 2.0 | 5.0 | 0.00 | 0.06 | 0.06 | 89 | 1011.1 |
| 20260902023926 | 80 | 0 | 2.0 | 5.0 | 0.00 | 0.06 | 0.06 | 89 | 1011.1 |
| 20260902023828 | 80 | 0 | 3.0 | 5.0 | 0.00 | 0.06 | 0.06 | 89 | 1011.0 |
| 20260902023728 | 80 | 0 | 3.0 | 5.0 | 0.00 | 0.06 | 0.06 | 89 | 1011.1 |
| 20260902023626 | 80 | 0 | 2.0 | 5.0 | 0.00 | 0.06 | 0.06 | 89 | 1011.0 |
| 20260902023526 | 80 | 0 | 3.0 | 5.0 | 0.00 | 0.06 | 0.06 | 89 | 1011.0 |
| 20260902023429 | 80 | 0 | 3.0 | 5.0 | 0.00 | 0.06 | 0.06 | 89 | 1011.0 |
| 20260902023327 | 80 | 0 | 3.0 | 5.0 | 0.00 | 0.06 | 0.06 | 89 | 1011.0 |
| 20260902023229 | 80 | 0 | 3.0 | 4.0 | 0.00 | 0.06 | 0.06 | 89 | 1010.9 |
| 20260902023127 | 80 | 0 | 3.0 | 4.0 | 0.00 | 0.06 | 0.06 | 90 | 1010.8 |
| 20260902023027 | 80 | 0 | 2.0 | 4.0 | 0.00 | 0.06 | 0.06 | 90 | 1010.8 |
| 20260902022926 | 80 | 0 | 2.0 | 4.0 | 0.00 | 0.06 | 0.06 | 90 | 1010.8 |
| 20260902022826 | 80 | 0 | 2.0 | 4.0 | 0.00 | 0.06 | 0.06 | 90 | 1010.7 |
| 20260902022727 | 80 | 0 | 2.0 | 4.0 | 0.00 | 0.06 | 0.06 | 90 | 1010.8 |
| 20260902022627 | 80 | 0 | 3.0 | 4.0 | 0.00 | 0.06 | 0.06 | 90 | 1010.8 |
| 20260902022527 | 80 | 0 | 3.0 | 4.0 | 0.00 | 0.06 | 0.06 | 90 | 1010.8 |
| 20260902022426 | 80 | 0 | 3.0 | 4.0 | 0.00 | 0.06 | 0.06 | 90 | 1010.8 |
| 20260902022327 | 80 | 0 | 2.0 | 4.0 | 0.00 | 0.06 | 0.06 | 90 | 1010.9 |
| 20260902022227 | 80 | 0 | 2.0 | 4.0 | 0.00 | 0.06 | 0.06 | 90 | 1010.8 |
| 20260902022126 | 80 | 0 | 3.0 | 4.0 | 0.00 | 0.06 | 0.06 | 90 | 1010.7 |
| 20260902022028 | 80 | 0 | 3.0 | 4.0 | 0.00 | 0.06 | 0.06 | 90 | 1010.8 |
| 20260902021927 | 79 | 0 | 2.0 | 4.0 | 0.00 | 0.06 | 0.06 | 90 | 1010.8 |
| 20260902021826 | 79 | 0 | 2.0 | 4.0 | 0.00 | 0.06 | 0.06 | 90 | 1010.8 |
| 20260902021727 | 79 | 0 | 2.0 | 4.0 | 0.00 | 0.06 | 0.06 | 90 | 1010.7 |
| 20260902021628 | 79 | 0 | 2.0 | 4.0 | 0.00 | 0.06 | 0.06 | 90 | 1010.7 |
| 20260902021526 | 79 | 0 | 2.0 | 4.0 | 0.00 | 0.06 | 0.06 | 90 | 1010.6 |
| 20260902021426 | 79 | 0 | 2.0 | 3.0 | 0.00 | 0.06 | 0.06 | 90 | 1010.7 |
| 20260902021328 | 79 | 0 | 2.0 | 3.0 | 0.00 | 0.06 | 0.06 | 90 | 1010.7 |
| 20260902021227 | 79 | 0 | 1.0 | 3.0 | 0.00 | 0.06 | 0.06 | 90 | 1010.6 |
| 20260902021126 | 79 | 0 | 2.0 | 4.0 | 0.00 | 0.06 | 0.06 | 90 | 1010.6 |
| 20260902021029 | 79 | 0 | 2.0 | 4.0 | 0.00 | 0.06 | 0.06 | 90 | 1010.6 |
| 20260902020926 | 79 | 0 | 2.0 | 4.0 | 0.00 | 0.06 | 0.06 | 90 | 1010.5 |
| 20260902020827 | 79 | 0 | 2.0 | 4.0 | 0.00 | 0.06 | 0.06 | 90 | 1010.5 |
| 20260902020726 | 79 | 0 | 2.0 | 4.0 | 0.00 | 0.06 | 0.06 | 90 | 1010.6 |
| 20260902020629 | 79 | 0 | 2.0 | 4.0 | 0.00 | 0.06 | 0.06 | 90 | 1010.6 |
| 20260902020526 | 79 | 0 | 2.0 | 4.0 | 0.00 | 0.06 | 0.06 | 90 | 1010.5 |
| 20260902020426 | 79 | 0 | 2.0 | 4.0 | 0.00 | 0.06 | 0.06 | 90 | 1010.5 |
| 20260902020327 | 79 | 0 | 2.0 | 4.0 | 0.00 | 0.06 | 0.06 | 90 | 1010.5 |
| 20260902020227 | 79 | 0 | 3.0 | 5.0 | 0.00 | 0.06 | 0.06 | 90 | 1010.5 |
| 20260902020126 | 79 | 0 | 3.0 | 5.0 | 0.00 | 0.06 | 0.06 | 90 | 1010.4 |
| 20260902020027 | 79 | 0 | 2.0 | 5.0 | 0.00 | 0.06 | 0.06 | 90 | 1010.5 |
| 20260902015929 | 79 | 0 | 2.0 | 5.0 | 0.00 | 0.06 | 0.06 | 90 | 1010.4 |
| 20260902015827 | 79 | 0 | 2.0 | 5.0 | 0.00 | 0.06 | 0.06 | 90 | 1010.4 |
| 20260902015726 | 79 | 0 | 3.0 | 5.0 | 0.00 | 0.06 | 0.06 | 90 | 1010.3 |
| 20260902015627 | 79 | 0 | 3.0 | 5.0 | 0.00 | 0.06 | 0.06 | 90 | 1010.3 |
| 20260902015525 | 79 | 0 | 3.0 | 5.0 | 0.00 | 0.06 | 0.06 | 90 | 1010.3 |
| 20260902015427 | 79 | 0 | 3.0 | 5.0 | 0.00 | 0.06 | 0.06 | 90 | 1010.4 |
| 20260902015327 | 79 | 0 | 3.0 | 5.0 | 0.00 | 0.06 | 0.06 | 90 | 1010.4 |
| 20260902015227 | 79 | 0 | 3.0 | 4.0 | 0.00 | 0.06 | 0.06 | 90 | 1010.4 |
| 20260902015125 | 79 | 0 | 2.0 | 4.0 | 0.00 | 0.06 | 0.06 | 90 | 1010.4 |
| 20260902015026 | 79 | 0 | 2.0 | 4.0 | 0.00 | 0.06 | 0.06 | 90 | 1010.4 |
| 20260902014927 | 79 | 0 | 3.0 | 4.0 | 0.00 | 0.06 | 0.06 | 90 | 1010.4 |
| 20260902014826 | 79 | 0 | 3.0 | 4.0 | 0.00 | 0.06 | 0.06 | 90 | 1010.4 |
| 20260902014727 | 79 | 0 | 3.0 | 4.0 | 0.00 | 0.06 | 0.06 | 91 | 1010.4 |
| 20260902014626 | 79 | 0 | 2.0 | 4.0 | 0.00 | 0.06 | 0.06 | 91 | 1010.4 |
| 20260902014526 | 79 | 0 | 2.0 | 4.0 | 0.00 | 0.06 | 0.06 | 91 | 1010.4 |
| 20260902014425 | 79 | 0 | 2.0 | 4.0 | 0.00 | 0.06 | 0.06 | 91 | 1010.4 |
| 20260902014325 | 79 | 0 | 2.0 | 4.0 | 0.00 | 0.06 | 0.06 | 91 | 1010.5 |
| 20260902014227 | 79 | 0 | 2.0 | 4.0 | 0.00 | 0.06 | 0.06 | 91 | 1010.4 |
| 20260902014126 | 79 | 0 | 2.0 | 4.0 | 0.00 | 0.06 | 0.06 | 91 | 1010.4 |
| 20260902014025 | 79 | 0 | 2.0 | 4.0 | 0.00 | 0.06 | 0.06 | 91 | 1010.4 |
| 20260902013926 | 79 | 0 | 2.0 | 4.0 | 0.00 | 0.06 | 0.06 | 91 | 1010.3 |
| 20260902013827 | 79 | 0 | 2.0 | 4.0 | 0.00 | 0.06 | 0.06 | 91 | 1010.3 |
| 20260902013727 | 79 | 0 | 2.0 | 4.0 | 0.00 | 0.06 | 0.06 | 91 | 1010.3 |
| 20260902013627 | 79 | 0 | 2.0 | 4.0 | 0.00 | 0.06 | 0.06 | 91 | 1010.3 |
| 20260902013527 | 79 | 0 | 2.0 | 3.0 | 0.00 | 0.06 | 0.06 | 91 | 1010.3 |
| 20260902013426 | 79 | 0 | 2.0 | 3.0 | 0.00 | 0.06 | 0.06 | 91 | 1010.2 |
| 20260902013326 | 79 | 0 | 2.0 | 3.0 | 0.00 | 0.06 | 0.06 | 91 | 1010.3 |
| 20260902013227 | 79 | 0 | 2.0 | 3.0 | 0.00 | 0.06 | 0.06 | 91 | 1010.2 |
| 20260902013126 | 79 | 0 | 2.0 | 3.0 | 0.00 | 0.06 | 0.06 | 91 | 1010.2 |
| 20260902013026 | 79 | 0 | 2.0 | 4.0 | 0.00 | 0.06 | 0.06 | 91 | 1010.2 |
| 20260902012926 | 79 | 0 | 2.0 | 4.0 | 0.00 | 0.06 | 0.06 | 91 | 1010.3 |
| 20260902012826 | 79 | 0 | 2.0 | 4.0 | 0.00 | 0.06 | 0.06 | 91 | 1010.3 |
| 20260902012726 | 79 | 0 | 2.0 | 4.0 | 0.00 | 0.06 | 0.06 | 91 | 1010.2 |
| 20260902012626 | 79 | 0 | 2.0 | 5.0 | 0.00 | 0.06 | 0.06 | 91 | 1010.3 |
| 20260902012527 | 79 | 0 | 2.0 | 5.0 | 0.00 | 0.06 | 0.06 | 91 | 1010.3 |
| 20260902012425 | 79 | 0 | 2.0 | 5.0 | 0.00 | 0.06 | 0.06 | 91 | 1010.3 |
| 20260902012325 | 79 | 0 | 2.0 | 5.0 | 0.00 | 0.06 | 0.06 | 91 | 1010.2 |
| 20260902012225 | 79 | 0 | 2.0 | 5.0 | 0.00 | 0.06 | 0.06 | 91 | 1010.2 |
| 20260902012127 | 79 | 0 | 2.0 | 5.0 | 0.00 | 0.06 | 0.06 | 91 | 1010.3 |
| 20260902012025 | 79 | 0 | 2.0 | 5.0 | 0.00 | 0.06 | 0.06 | 91 | 1010.2 |
| 20260902011925 | 79 | 0 | 3.0 | 5.0 | 0.00 | 0.06 | 0.06 | 91 | 1010.3 |
| 20260902011826 | 79 | 0 | 4.0 | 5.0 | 0.00 | 0.06 | 0.06 | 91 | 1010.2 |
| 20260902011726 | 79 | 0 | 3.0 | 5.0 | 0.00 | 0.06 | 0.06 | 91 | 1010.2 |
| 20260902011626 | 79 | 0 | 3.0 | 4.0 | 0.00 | 0.06 | 0.06 | 91 | 1010.2 |
| 20260902011524 | 79 | 0 | 2.0 | 4.0 | 0.00 | 0.06 | 0.06 | 91 | 1010.2 |
| 20260902011426 | 79 | 0 | 2.0 | 4.0 | 0.00 | 0.06 | 0.06 | 91 | 1010.1 |
| 20260902011326 | 79 | 0 | 2.0 | 4.0 | 0.00 | 0.06 | 0.06 | 91 | 1010.2 |
| 20260902011226 | 79 | 0 | 2.0 | 3.0 | 0.00 | 0.06 | 0.06 | 91 | 1010.2 |
| 20260902011127 | 79 | 0 | 2.0 | 3.0 | 0.00 | 0.06 | 0.06 | 91 | 1010.2 |
| 20260902011025 | 79 | 0 | 2.0 | 3.0 | 0.00 | 0.06 | 0.06 | 91 | 1010.2 |
| 20260902010925 | 79 | 0 | 2.0 | 3.0 | 0.00 | 0.06 | 0.06 | 91 | 1010.2 |
| 20260902010826 | 79 | 0 | 2.0 | 3.0 | 0.00 | 0.06 | 0.06 | 91 | 1010.1 |
| 20260902010726 | 79 | 0 | 2.0 | 4.0 | 0.00 | 0.06 | 0.06 | 91 | 1010.1 |
| 20260902010625 | 79 | 0 | 2.0 | 4.0 | 0.00 | 0.06 | 0.06 | 91 | 1010.1 |
| 20260902010524 | 79 | 0 | 2.0 | 4.0 | 0.00 | 0.06 | 0.06 | 91 | 1010.1 |
| 20260902010426 | 79 | 0 | 2.0 | 4.0 | 0.00 | 0.06 | 0.06 | 91 | 1010.2 |
| 20260902010325 | 79 | 0 | 2.0 | 4.0 | 0.00 | 0.06 | 0.06 | 92 | 1010.1 |
| 20260902010224 | 79 | 0 | 1.0 | 4.0 | 0.00 | 0.06 | 0.06 | 92 | 1010.1 |
| 20260902010124 | 79 | 0 | 2.0 | 4.0 | 0.00 | 0.06 | 0.06 | 92 | 1010.1 |
| 20260902010025 | 79 | 0 | 2.0 | 4.0 | 0.00 | 0.06 | 0.06 | 91 | 1010.2 |
| 20260902005924 | 79 | 0 | 2.0 | 4.0 | 0.00 | 0.06 | 0.06 | 92 | 1010.2 |
| 20260902005824 | 79 | 282 | 3.0 | 4.0 | 0.00 | 0.06 | 0.06 | 92 | 1010.2 |
| 20260902005725 | 79 | 286 | 2.0 | 4.0 | 0.00 | 0.06 | 0.06 | 92 | 1010.2 |
| 20260902005624 | 79 | 288 | 2.0 | 4.0 | 0.00 | 0.06 | 0.06 | 92 | 1010.2 |
| 20260902005526 | 79 | 289 | 2.0 | 4.0 | 0.00 | 0.06 | 0.06 | 92 | 1010.1 |
| 20260902005425 | 79 | 292 | 2.0 | 4.0 | 0.00 | 0.06 | 0.06 | 92 | 1010.2 |
| 20260902005325 | 79 | 292 | 2.0 | 4.0 | 0.00 | 0.06 | 0.06 | 92 | 1010.1 |
| 20260902005224 | 79 | 293 | 2.0 | 4.0 | 0.00 | 0.06 | 0.06 | 92 | 1010.1 |
| 20260902005124 | 79 | 293 | 2.0 | 4.0 | 0.00 | 0.06 | 0.06 | 92 | 1010.1 |
| 20260902005026 | 79 | 306 | 1.0 | 4.0 | 0.00 | 0.06 | 0.06 | 92 | 1010.1 |
| 20260902004924 | 79 | 306 | 2.0 | 4.0 | 0.00 | 0.06 | 0.06 | 92 | 1010.2 |
| 20260902004824 | 79 | 306 | 2.0 | 4.0 | 0.00 | 0.06 | 0.06 | 92 | 1010.2 |
| 20260902004724 | 79 | 309 | 2.0 | 4.0 | 0.00 | 0.06 | 0.06 | 92 | 1010.1 |
| 20260902004626 | 79 | 310 | 2.0 | 4.0 | 0.00 | 0.06 | 0.06 | 92 | 1010.2 |
| 20260902004525 | 79 | 310 | 2.0 | 4.0 | 0.00 | 0.06 | 0.06 | 92 | 1010.2 |
| 20260902004424 | 79 | 312 | 2.0 | 4.0 | 0.00 | 0.06 | 0.06 | 92 | 1010.3 |
| 20260902004325 | 79 | 310 | 2.0 | 4.0 | 0.00 | 0.06 | 0.06 | 92 | 1010.3 |
| 20260902004224 | 79 | 289 | 2.0 | 4.0 | 0.00 | 0.06 | 0.06 | 92 | 1010.4 |
| 20260902004125 | 79 | 312 | 2.0 | 4.0 | 0.00 | 0.06 | 0.06 | 92 | 1010.3 |
| 20260902004025 | 79 | 312 | 2.0 | 4.0 | 0.00 | 0.06 | 0.06 | 92 | 1010.4 |
| 20260902003924 | 79 | 306 | 2.0 | 4.0 | 0.00 | 0.06 | 0.06 | 92 | 1010.4 |
| 20260902003824 | 79 | 312 | 2.0 | 4.0 | 0.00 | 0.06 | 0.06 | 92 | 1010.4 |
| 20260902003724 | 79 | 292 | 2.0 | 4.0 | 0.00 | 0.06 | 0.06 | 92 | 1010.4 |
| 20260902003627 | 79 | 295 | 2.0 | 4.0 | 0.00 | 0.06 | 0.06 | 92 | 1010.4 |
| 20260902003525 | 79 | 295 | 2.0 | 4.0 | 0.00 | 0.06 | 0.06 | 92 | 1010.3 |
| 20260902003426 | 79 | 296 | 2.0 | 4.0 | 0.00 | 0.06 | 0.06 | 92 | 1010.4 |
| 20260902003325 | 79 | 293 | 2.0 | 5.0 | 0.00 | 0.06 | 0.06 | 91 | 1010.4 |
| 20260902003225 | 79 | 292 | 2.0 | 5.0 | 0.00 | 0.06 | 0.06 | 91 | 1010.4 |
| 20260902003124 | 79 | 293 | 2.0 | 5.0 | 0.00 | 0.06 | 0.06 | 91 | 1010.3 |
| 20260902003025 | 79 | 293 | 2.0 | 5.0 | 0.00 | 0.06 | 0.06 | 91 | 1010.3 |
| 20260902002925 | 79 | 286 | 2.0 | 5.0 | 0.00 | 0.06 | 0.06 | 91 | 1010.4 |
| 20260902002824 | 79 | 286 | 2.0 | 5.0 | 0.00 | 0.06 | 0.06 | 91 | 1010.4 |
| 20260902002724 | 79 | 286 | 2.0 | 5.0 | 0.00 | 0.06 | 0.06 | 91 | 1010.3 |
| 20260902002626 | 79 | 288 | 2.0 | 5.0 | 0.00 | 0.06 | 0.06 | 91 | 1010.3 |
| 20260902002525 | 79 | 288 | 3.0 | 6.0 | 0.00 | 0.06 | 0.06 | 91 | 1010.4 |
| 20260902002423 | 79 | 289 | 3.0 | 6.0 | 0.00 | 0.06 | 0.06 | 91 | 1010.4 |
| 20260902002324 | 79 | 293 | 3.0 | 6.0 | 0.00 | 0.06 | 0.06 | 91 | 1010.4 |
| 20260902002224 | 79 | 295 | 3.0 | 6.0 | 0.00 | 0.06 | 0.06 | 91 | 1010.4 |
| 20260902002124 | 79 | 298 | 3.0 | 6.0 | 0.00 | 0.06 | 0.06 | 91 | 1010.3 |
| 20260902002024 | 79 | 298 | 2.0 | 6.0 | 0.00 | 0.06 | 0.06 | 91 | 1010.5 |
| 20260902001924 | 79 | 296 | 2.0 | 6.0 | 0.00 | 0.06 | 0.06 | 91 | 1010.5 |
| 20260902001825 | 79 | 298 | 3.0 | 6.0 | 0.00 | 0.06 | 0.06 | 91 | 1010.5 |
| 20260902001723 | 79 | 300 | 3.0 | 6.0 | 0.00 | 0.06 | 0.06 | 91 | 1010.5 |
| 20260902001623 | 79 | 300 | 3.0 | 6.0 | 0.00 | 0.06 | 0.06 | 91 | 1010.6 |
| 20260902001524 | 79 | 290 | 3.0 | 5.0 | 0.00 | 0.06 | 0.06 | 91 | 1010.5 |
| 20260902001423 | 79 | 292 | 3.0 | 5.0 | 0.00 | 0.06 | 0.06 | 91 | 1010.5 |
| 20260902001323 | 79 | 292 | 3.0 | 5.0 | 0.00 | 0.06 | 0.06 | 91 | 1010.5 |
| 20260902001225 | 79 | 292 | 4.0 | 5.0 | 0.00 | 0.06 | 0.06 | 91 | 1010.5 |
| 20260902001124 | 79 | 310 | 3.0 | 5.0 | 0.00 | 0.06 | 0.06 | 91 | 1010.5 |
| 20260902001023 | 79 | 283 | 3.0 | 5.0 | 0.00 | 0.06 | 0.06 | 91 | 1010.4 |
| 20260902000923 | 79 | 288 | 3.0 | 5.0 | 0.00 | 0.06 | 0.06 | 91 | 1010.5 |
| 20260902000825 | 79 | 305 | 3.0 | 5.0 | 0.00 | 0.06 | 0.06 | 91 | 1010.5 |
| 20260902000724 | 79 | 309 | 3.0 | 5.0 | 0.00 | 0.06 | 0.06 | 91 | 1010.5 |
| 20260902000625 | 79 | 299 | 4.0 | 5.0 | 0.00 | 0.06 | 0.06 | 91 | 1010.5 |
| 20260902000525 | 79 | 302 | 3.0 | 5.0 | 0.00 | 0.06 | 0.06 | 91 | 1010.4 |
| 20260902000424 | 79 | 309 | 2.0 | 5.0 | 0.00 | 0.06 | 0.06 | 91 | 1010.4 |
| 20260902000325 | 79 | 307 | 2.0 | 5.0 | 0.00 | 0.06 | 0.06 | 91 | 1010.5 |
| 20260902000226 | 79 | 309 | 3.0 | 5.0 | 0.00 | 0.06 | 0.06 | 91 | 1010.4 |
| 20260902000125 | 79 | 309 | 3.0 | 5.0 | 0.00 | 0.06 | 0.06 | 91 | 1010.4 |
| 20260902000024 | 79 | 302 | 4.0 | 5.0 | 0.00 | 0.06 | 0.06 | 90 | 1010.4 |
| 20260901235923 | 79 | 302 | 3.0 | 5.0 | 0.00 | 0.06 | 0.06 | 90 | 1010.4 |
| 20260901235825 | 79 | 269 | 3.0 | 5.0 | 0.00 | 0.06 | 0.06 | 90 | 1010.4 |
| 20260901235723 | 79 | 279 | 3.0 | 5.0 | 0.00 | 0.06 | 0.06 | 90 | 1010.3 |
| 20260901235623 | 79 | 298 | 3.0 | 5.0 | 0.00 | 0.06 | 0.06 | 90 | 1010.3 |
| 20260901235523 | 79 | 298 | 3.0 | 5.0 | 0.00 | 0.06 | 0.06 | 90 | 1010.3 |
| 20260901235423 | 79 | 279 | 3.0 | 5.0 | 0.00 | 0.06 | 0.06 | 90 | 1010.3 |
| 20260901235323 | 79 | 278 | 4.0 | 5.0 | 0.00 | 0.06 | 0.06 | 90 | 1010.4 |
| 20260901235223 | 80 | 276 | 3.0 | 5.0 | 0.00 | 0.06 | 0.06 | 90 | 1010.4 |
| 20260901235124 | 80 | 302 | 3.0 | 5.0 | 0.00 | 0.06 | 0.06 | 90 | 1010.4 |
| 20260901235023 | 80 | 299 | 2.0 | 5.0 | 0.00 | 0.06 | 0.06 | 90 | 1010.4 |
| 20260901234923 | 80 | 274 | 2.0 | 5.0 | 0.00 | 0.06 | 0.06 | 90 | 1010.4 |
| 20260901234824 | 80 | 274 | 2.0 | 5.0 | 0.00 | 0.06 | 0.06 | 90 | 1010.4 |
| 20260901234724 | 80 | 285 | 2.0 | 5.0 | 0.00 | 0.06 | 0.06 | 90 | 1010.4 |
| 20260901234623 | 80 | 289 | 3.0 | 6.0 | 0.00 | 0.06 | 0.06 | 90 | 1010.4 |
| 20260901234523 | 80 | 309 | 4.0 | 6.0 | 0.00 | 0.06 | 0.06 | 89 | 1010.3 |
| 20260901234424 | 80 | 281 | 3.0 | 6.0 | 0.00 | 0.06 | 0.06 | 89 | 1010.4 |
| 20260901234323 | 80 | 285 | 2.0 | 6.0 | 0.00 | 0.06 | 0.06 | 89 | 1010.3 |
| 20260901234223 | 80 | 295 | 3.0 | 6.0 | 0.00 | 0.06 | 0.06 | 89 | 1010.4 |
| 20260901234124 | 80 | 282 | 3.0 | 6.0 | 0.00 | 0.06 | 0.06 | 89 | 1010.4 |
| 20260901234024 | 80 | 290 | 3.0 | 6.0 | 0.00 | 0.06 | 0.06 | 89 | 1010.4 |
| 20260901233922 | 80 | 283 | 3.0 | 7.0 | 0.00 | 0.06 | 0.06 | 88 | 1010.4 |
| 20260901233824 | 80 | 282 | 4.0 | 7.0 | 0.00 | 0.06 | 0.06 | 88 | 1010.4 |
| 20260901233725 | 80 | 296 | 4.0 | 10.0 | 0.00 | 0.06 | 0.06 | 88 | 1010.4 |
| 20260901233624 | 80 | 290 | 3.0 | 10.0 | 0.00 | 0.06 | 0.06 | 88 | 1010.4 |
| 20260901233525 | 80 | 281 | 2.0 | 10.0 | 0.00 | 0.06 | 0.06 | 88 | 1010.4 |
| 20260901233422 | 80 | 286 | 2.0 | 10.0 | 0.00 | 0.06 | 0.06 | 88 | 1010.5 |
| 20260901233324 | 81 | 286 | 3.0 | 10.0 | 0.00 | 0.06 | 0.06 | 88 | 1010.5 |
| 20260901233223 | 81 | 286 | 4.0 | 10.0 | 0.00 | 0.06 | 0.06 | 88 | 1010.5 |
| 20260901233123 | 81 | 299 | 4.0 | 10.0 | 0.00 | 0.06 | 0.06 | 88 | 1010.5 |
| 20260901233024 | 81 | 282 | 4.0 | 10.0 | 0.00 | 0.06 | 0.06 | 88 | 1010.4 |
| 20260901232923 | 81 | 285 | 5.0 | 10.0 | 0.00 | 0.06 | 0.06 | 87 | 1010.5 |
| 20260901232822 | 81 | 289 | 5.0 | 10.0 | 0.00 | 0.06 | 0.06 | 88 | 1010.5 |
| 20260901232723 | 81 | 289 | 5.0 | 10.0 | 0.00 | 0.06 | 0.06 | 88 | 1010.5 |
| 20260901232623 | 81 | 283 | 4.0 | 9.0 | 0.00 | 0.06 | 0.06 | 89 | 1010.5 |
| 20260901232524 | 81 | 295 | 3.0 | 9.0 | 0.00 | 0.06 | 0.06 | 89 | 1010.5 |
| 20260901232423 | 81 | 295 | 3.0 | 9.0 | 0.00 | 0.06 | 0.06 | 89 | 1010.5 |
| 20260901232323 | 81 | 295 | 3.0 | 9.0 | 0.00 | 0.06 | 0.06 | 89 | 1010.5 |
| 20260901232223 | 81 | 292 | 4.0 | 9.0 | 0.00 | 0.06 | 0.06 | 89 | 1010.5 |
| 20260901232123 | 81 | 292 | 5.0 | 9.0 | 0.00 | 0.06 | 0.06 | 89 | 1010.6 |
| 20260901232024 | 81 | 289 | 6.0 | 9.0 | 0.00 | 0.06 | 0.06 | 89 | 1010.6 |
| 20260901231923 | 81 | 296 | 5.0 | 9.0 | 0.00 | 0.06 | 0.06 | 90 | 1010.6 |
| 20260901231822 | 81 | 283 | 3.0 | 6.0 | 0.00 | 0.06 | 0.06 | 90 | 1010.7 |
| 20260901231722 | 81 | 275 | 3.0 | 6.0 | 0.00 | 0.06 | 0.06 | 90 | 1010.6 |
| 20260901231624 | 81 | 290 | 2.0 | 6.0 | 0.00 | 0.06 | 0.06 | 91 | 1010.7 |
| 20260901231522 | 81 | 292 | 2.0 | 6.0 | 0.00 | 0.06 | 0.06 | 91 | 1010.6 |
| 20260901231423 | 81 | 289 | 3.0 | 6.0 | 0.00 | 0.06 | 0.06 | 90 | 1010.7 |
| 20260901231322 | 81 | 288 | 4.0 | 6.0 | 0.00 | 0.06 | 0.06 | 90 | 1010.7 |
| 20260901231222 | 81 | 0 | 4.0 | 6.0 | 0.00 | 0.06 | 0.06 | 91 | 1010.8 |
| 20260901231123 | 81 | 296 | 4.0 | 6.0 | 0.01 | 0.06 | 0.06 | 91 | 1010.8 |
| 20260901231022 | 81 | 276 | 3.0 | 5.0 | 0.01 | 0.06 | 0.06 | 91 | 1010.8 |
| 20260901230924 | 80 | 285 | 2.0 | 7.0 | 0.01 | 0.06 | 0.06 | 91 | 1010.8 |
| 20260901230822 | 81 | 300 | 3.0 | 7.0 | 0.01 | 0.06 | 0.06 | 91 | 1010.8 |
| 20260901230722 | 81 | 292 | 3.0 | 7.0 | 0.01 | 0.06 | 0.06 | 91 | 1010.8 |
| 20260901230622 | 81 | 293 | 3.0 | 7.0 | 0.01 | 0.06 | 0.06 | 91 | 1010.8 |
| 20260901230522 | 81 | 296 | 3.0 | 7.0 | 0.01 | 0.06 | 0.06 | 91 | 1010.9 |
| 20260901230422 | 80 | 299 | 2.0 | 7.0 | 0.01 | 0.06 | 0.06 | 91 | 1010.9 |
| 20260901230323 | 80 | 303 | 3.0 | 7.0 | 0.01 | 0.06 | 0.06 | 91 | 1010.9 |
| 20260901230223 | 80 | 295 | 4.0 | 7.0 | 0.01 | 0.06 | 0.06 | 91 | 1010.9 |
| 20260901230122 | 80 | 285 | 4.0 | 7.0 | 0.01 | 0.06 | 0.06 | 91 | 1010.9 |
| 20260901230022 | 80 | 282 | 3.0 | 7.0 | 0.01 | 0.05 | 0.06 | 91 | 1011.0 |
| 20260901225923 | 80 | 285 | 4.0 | 7.0 | 0.01 | 0.05 | 0.06 | 91 | 1010.9 |
| 20260901225822 | 80 | 279 | 4.0 | 7.0 | 0.01 | 0.05 | 0.06 | 91 | 1010.9 |
| 20260901225722 | 80 | 283 | 4.0 | 7.0 | 0.01 | 0.05 | 0.06 | 91 | 1010.9 |
| 20260901225623 | 80 | 292 | 4.0 | 7.0 | 0.01 | 0.05 | 0.06 | 91 | 1010.9 |
| 20260901225523 | 80 | 281 | 4.0 | 7.0 | 0.01 | 0.05 | 0.06 | 91 | 1011.0 |
| 20260901225422 | 80 | 281 | 3.0 | 7.0 | 0.01 | 0.05 | 0.06 | 91 | 1011.0 |
| 20260901225321 | 80 | 289 | 2.0 | 7.0 | 0.01 | 0.05 | 0.06 | 91 | 1010.9 |
| 20260901225222 | 80 | 292 | 3.0 | 7.0 | 0.01 | 0.05 | 0.06 | 91 | 1011.0 |
| 20260901225122 | 80 | 288 | 3.0 | 10.0 | 0.01 | 0.05 | 0.06 | 91 | 1011.0 |
| 20260901225022 | 80 | 310 | 4.0 | 10.0 | 0.01 | 0.05 | 0.06 | 91 | 1011.1 |
| 20260901224921 | 80 | 299 | 4.0 | 10.0 | 0.01 | 0.05 | 0.06 | 91 | 1011.1 |
| 20260901224823 | 80 | 283 | 4.0 | 10.0 | 0.01 | 0.05 | 0.06 | 91 | 1011.1 |
| 20260901224723 | 80 | 283 | 4.0 | 10.0 | 0.01 | 0.05 | 0.06 | 91 | 1011.2 |
| 20260901224622 | 80 | 283 | 4.0 | 10.0 | 0.01 | 0.05 | 0.06 | 91 | 1011.2 |
| 20260901224523 | 80 | 283 | 4.0 | 10.0 | 0.01 | 0.05 | 0.06 | 91 | 1011.2 |
| 20260901224422 | 80 | 306 | 4.0 | 10.0 | 0.01 | 0.05 | 0.06 | 91 | 1011.2 |
| 20260901224322 | 80 | 0 | 4.0 | 10.0 | 0.01 | 0.05 | 0.06 | 91 | 1011.3 |
| 20260901224221 | 80 | 302 | 5.0 | 10.0 | 0.01 | 0.05 | 0.06 | 91 | 1011.3 |
| 20260901224123 | 80 | 298 | 6.0 | 10.0 | 0.01 | 0.05 | 0.06 | 91 | 1011.3 |
| 20260901224023 | 80 | 295 | 5.0 | 10.0 | 0.01 | 0.05 | 0.06 | 91 | 1011.3 |
| 20260901223922 | 80 | 288 | 5.0 | 9.0 | 0.01 | 0.05 | 0.06 | 91 | 1011.3 |
| 20260901223821 | 80 | 285 | 5.0 | 10.0 | 0.01 | 0.05 | 0.06 | 91 | 1011.3 |
| 20260901223722 | 80 | 8 | 6.0 | 10.0 | 0.01 | 0.05 | 0.06 | 90 | 1011.4 |
| 20260901223623 | 80 | 303 | 6.0 | 11.0 | 0.01 | 0.05 | 0.06 | 90 | 1011.3 |
| 20260901223521 | 80 | 296 | 5.0 | 11.0 | 0.01 | 0.05 | 0.06 | 91 | 1011.4 |
| 20260901223423 | 80 | 293 | 6.0 | 11.0 | 0.01 | 0.05 | 0.06 | 90 | 1011.3 |
| 20260901223321 | 80 | 16 | 6.0 | 11.0 | 0.01 | 0.05 | 0.06 | 90 | 1011.3 |
| 20260901223223 | 80 | 4 | 4.0 | 11.0 | 0.01 | 0.05 | 0.06 | 91 | 1011.3 |
| 20260901223122 | 80 | 10 | 4.0 | 11.0 | 0.01 | 0.05 | 0.06 | 91 | 1011.3 |
| 20260901223021 | 80 | 0 | 6.0 | 11.0 | 0.01 | 0.05 | 0.06 | 90 | 1011.3 |
| 20260901222921 | 80 | 4 | 6.0 | 11.0 | 0.01 | 0.05 | 0.06 | 91 | 1011.3 |
| 20260901222822 | 80 | 0 | 6.0 | 11.0 | 0.01 | 0.05 | 0.06 | 90 | 1011.3 |
| 20260901222721 | 80 | 23 | 7.0 | 11.0 | 0.01 | 0.05 | 0.06 | 90 | 1011.3 |
| 20260901222622 | 80 | 3 | 5.0 | 10.0 | 0.01 | 0.05 | 0.06 | 91 | 1011.3 |
| 20260901222521 | 80 | 0 | 5.0 | 10.0 | 0.01 | 0.05 | 0.06 | 91 | 1011.3 |
| 20260901222421 | 80 | 299 | 4.0 | 10.0 | 0.01 | 0.05 | 0.06 | 91 | 1011.2 |
| 20260901222321 | 80 | 13 | 3.0 | 7.0 | 0.01 | 0.05 | 0.06 | 91 | 1011.3 |
| 20260901222221 | 80 | 8 | 2.0 | 7.0 | 0.01 | 0.05 | 0.06 | 91 | 1011.3 |
| 20260901222121 | 80 | 10 | 2.0 | 7.0 | 0.01 | 0.05 | 0.06 | 91 | 1011.3 |
| 20260901222022 | 80 | 10 | 4.0 | 7.0 | 0.01 | 0.05 | 0.06 | 90 | 1011.4 |
| 20260901221922 | 80 | 31 | 5.0 | 7.0 | 0.01 | 0.05 | 0.06 | 90 | 1011.3 |
| 20260901221803 | 80 | 18 | 5.0 | 7.0 | 0.01 | 0.05 | 0.06 | 90 | 1011.3 |
| 20260901221704 | 80 | 20 | 5.0 | 7.0 | 0.01 | 0.05 | 0.06 | 90 | 1011.3 |
| 20260901221605 | 80 | 11 | 6.0 | 7.0 | 0.01 | 0.05 | 0.06 | 90 | 1011.3 |
| 20260901221503 | 80 | 25 | 6.0 | 7.0 | 0.01 | 0.05 | 0.06 | 90 | 1011.3 |
| 20260901221401 | 80 | 18 | 5.0 | 7.0 | 0.01 | 0.05 | 0.06 | 90 | 1011.3 |
| 20260901221302 | 80 | 20 | 4.0 | 5.0 | 0.01 | 0.05 | 0.06 | 90 | 1011.3 |
| 20260901221203 | 81 | 39 | 3.0 | 5.0 | 0.01 | 0.05 | 0.05 | 90 | 1011.3 |
| 20260901221102 | 81 | 16 | 3.0 | 5.0 | 0.00 | 0.05 | 0.05 | 90 | 1011.3 |
| 20260901221004 | 81 | 16 | 4.0 | 5.0 | 0.00 | 0.05 | 0.05 | 90 | 1011.3 |
| 20260901220904 | 81 | 21 | 3.0 | 7.0 | 0.00 | 0.05 | 0.05 | 90 | 1011.4 |
| 20260901220804 | 81 | 7 | 3.0 | 7.0 | 0.00 | 0.05 | 0.05 | 90 | 1011.4 |
| 20260901220702 | 81 | 13 | 3.0 | 7.0 | 0.00 | 0.05 | 0.05 | 90 | 1011.4 |
| 20260901220603 | 81 | 20 | 3.0 | 9.0 | 0.00 | 0.05 | 0.05 | 90 | 1011.4 |
| 20260901220503 | 81 | 20 | 3.0 | 9.0 | 0.00 | 0.05 | 0.05 | 90 | 1011.4 |
| 20260901220404 | 81 | 23 | 3.0 | 9.0 | 0.00 | 0.05 | 0.05 | 89 | 1011.4 |
| 20260901220302 | 81 | 23 | 3.0 | 9.0 | 0.00 | 0.05 | 0.05 | 89 | 1011.4 |
| 20260901220204 | 81 | 39 | 5.0 | 10.0 | 0.00 | 0.05 | 0.05 | 89 | 1011.4 |
| 20260901220035 | 81 | 39 | 5.0 | 10.0 | 0.00 | 0.05 | 0.05 | 89 | 1011.4 |
| 20260901215932 | 81 | 39 | 5.0 | 10.0 | 0.00 | 0.05 | 0.00 | 89 | 1011.4 |
| 20260901215832 | 81 | 23 | 5.0 | 10.0 | 0.00 | 0.05 | 0.00 | 89 | 1011.4 |
| 20260901215732 | 82 | 42 | 6.0 | 10.0 | 0.00 | 0.05 | 0.00 | 89 | 1011.3 |
| 20260901215634 | 82 | 66 | 6.0 | 10.0 | 0.00 | 0.05 | 0.00 | 88 | 1011.4 |
| 20260901215531 | 82 | 63 | 6.0 | 10.0 | 0.00 | 0.05 | 0.00 | 89 | 1011.4 |
| 20260901215431 | 82 | 44 | 6.0 | 10.0 | 0.00 | 0.05 | 0.00 | 88 | 1011.4 |
| 20260901215332 | 82 | 41 | 7.0 | 11.0 | 0.00 | 0.05 | 0.00 | 88 | 1011.4 |
| 20260901215233 | 82 | 42 | 6.0 | 11.0 | 0.00 | 0.05 | 0.00 | 89 | 1011.4 |
| 20260901215132 | 82 | 47 | 4.0 | 11.0 | 0.00 | 0.05 | 0.00 | 89 | 1011.4 |
| 20260901215033 | 82 | 39 | 4.0 | 11.0 | 0.02 | 0.05 | 0.00 | 89 | 1011.3 |
| 20260901214931 | 82 | 38 | 5.0 | 11.0 | 0.02 | 0.05 | 0.00 | 88 | 1011.4 |
| 20260901214832 | 82 | 58 | 5.0 | 11.0 | 0.02 | 0.05 | 0.00 | 88 | 1011.5 |
| 20260901214732 | 82 | 45 | 5.0 | 11.0 | 0.02 | 0.05 | 0.00 | 88 | 1011.4 |
| 20260901214631 | 82 | 32 | 7.0 | 11.0 | 0.02 | 0.05 | 0.00 | 88 | 1011.4 |
| 20260901214532 | 82 | 24 | 8.0 | 11.0 | 0.02 | 0.05 | 0.00 | 88 | 1011.4 |
| 20260901214432 | 82 | 27 | 9.0 | 11.0 | 0.02 | 0.05 | 0.00 | 88 | 1011.5 |
| 20260901214332 | 83 | 55 | 8.0 | 11.0 | 0.02 | 0.05 | 0.00 | 88 | 1011.5 |
| 20260901214231 | 83 | 24 | 6.0 | 11.0 | 0.02 | 0.05 | 0.00 | 88 | 1011.5 |
| 20260901214132 | 83 | 24 | 6.0 | 11.0 | 0.02 | 0.05 | 0.00 | 88 | 1011.4 |
| 20260901214032 | 83 | 24 | 6.0 | 11.0 | 0.02 | 0.05 | 0.00 | 88 | 1011.5 |
| 20260901213933 | 83 | 24 | 6.0 | 11.0 | 0.02 | 0.05 | 0.00 | 88 | 1011.4 |
| 20260901213833 | 83 | 51 | 6.0 | 11.0 | 0.02 | 0.05 | 0.00 | 88 | 1011.5 |
| 20260901213730 | 83 | 66 | 6.0 | 7.0 | 0.03 | 0.05 | 0.00 | 88 | 1011.6 |
| 20260901213632 | 83 | 47 | 4.0 | 7.0 | 0.03 | 0.05 | 0.00 | 88 | 1011.6 |
| 20260901213531 | 83 | 24 | 3.0 | 4.0 | 0.03 | 0.05 | 0.00 | 88 | 1011.5 |
| 20260901213431 | 84 | 14 | 3.0 | 4.0 | 0.03 | 0.05 | 0.00 | 88 | 1011.4 |
| 20260901213331 | 84 | 14 | 2.0 | 4.0 | 0.03 | 0.05 | 0.00 | 89 | 1011.4 |
| 20260901213232 | 84 | 14 | 1.0 | 3.0 | 0.03 | 0.05 | 0.00 | 88 | 1011.4 |
| 20260901213132 | 84 | 14 | 0.0 | 0.0 | 0.04 | 0.05 | 0.00 | 88 | 1011.3 |
| 20260901213030 | 84 | 14 | 0.0 | 0.0 | 0.04 | 0.05 | 0.00 | 88 | 1011.3 |
| 20260901212932 | 84 | 14 | 0.0 | 0.0 | 0.04 | 0.05 | 0.00 | 88 | 1011.3 |
| 20260901212832 | 84 | 14 | 0.0 | 0.0 | 0.04 | 0.05 | 0.00 | 88 | 1011.3 |
| 20260901212732 | 84 | 14 | 0.0 | 1.0 | 0.04 | 0.05 | 0.00 | 88 | 1011.3 |
| 20260901212633 | 83 | 14 | 0.0 | 1.0 | 0.04 | 0.05 | 0.00 | 87 | 1011.3 |
| 20260901212532 | 83 | 14 | 0.0 | 1.0 | 0.05 | 0.05 | 0.00 | 87 | 1011.3 |
| 20260901212431 | 83 | 14 | 0.0 | 1.0 | 0.05 | 0.05 | 0.00 | 87 | 1011.2 |
| 20260901212332 | 83 | 14 | 0.0 | 1.0 | 0.05 | 0.05 | 0.00 | 86 | 1011.4 |
| 20260901212231 | 83 | 14 | 0.0 | 1.0 | 0.05 | 0.05 | 0.00 | 86 | 1011.4 |
| 20260901212132 | 83 | 14 | 0.0 | 1.0 | 0.05 | 0.05 | 0.00 | 86 | 1011.4 |
| 20260901212031 | 83 | 14 | 0.0 | 1.0 | 0.05 | 0.05 | 0.00 | 87 | 1011.4 |
| 20260901211933 | 83 | 14 | 0.0 | 1.0 | 0.05 | 0.05 | 0.00 | 87 | 1011.4 |
| 20260901211833 | 83 | 14 | 0.0 | 1.0 | 0.05 | 0.05 | 0.00 | 86 | 1011.4 |
| 20260901211731 | 83 | 14 | 0.0 | 1.0 | 0.05 | 0.05 | 0.00 | 86 | 1011.3 |
| 20260901211631 | 83 | 14 | 0.0 | 1.0 | 0.05 | 0.05 | 0.00 | 86 | 1011.3 |
| 20260901211532 | 83 | 14 | 0.0 | 2.0 | 0.05 | 0.05 | 0.00 | 85 | 1011.3 |
| 20260901211431 | 82 | 14 | 2.0 | 3.0 | 0.05 | 0.05 | 0.00 | 87 | 1011.3 |
| 20260901211333 | 82 | 14 | 2.0 | 3.0 | 0.05 | 0.05 | 0.00 | 87 | 1011.3 |
| 20260901211232 | 82 | 14 | 2.0 | 3.0 | 0.05 | 0.05 | 0.00 | 87 | 1011.3 |
| 20260901211133 | 82 | 14 | 2.0 | 3.0 | 0.05 | 0.05 | 0.00 | 87 | 1011.3 |
| 20260901211032 | 82 | 14 | 2.0 | 3.0 | 0.05 | 0.05 | 0.00 | 87 | 1011.3 |
| 20260901210932 | 82 | 14 | 2.0 | 3.0 | 0.05 | 0.05 | 0.00 | 87 | 1011.3 |
| 20260901210831 | 82 | 14 | 2.0 | 3.0 | 0.05 | 0.05 | 0.00 | 87 | 1011.3 |
| 20260901210732 | 82 | 14 | 2.0 | 3.0 | 0.05 | 0.05 | 0.00 | 87 | 1011.3 |
| 20260901210622 | 82 | 14 | 2.0 | 3.0 | 0.05 | 0.05 | 0.00 | 87 | 1011.3 |
| 20260901210518 | 82 | 14 | 2.0 | 3.0 | 0.05 | 0.05 | 0.00 | 87 | 1011.3 |
| 20260901210419 | 82 | 14 | 2.0 | 4.0 | 0.05 | 0.05 | 0.00 | 86 | 1011.4 |
| 20260901210319 | 82 | 11 | 3.0 | 5.0 | 0.05 | 0.05 | 0.05 | 86 | 1011.4 |
| 20260901210218 | 82 | 11 | 3.0 | 5.0 | 0.05 | 0.05 | 0.05 | 86 | 1011.3 |
| 20260901210116 | 82 | 11 | 3.0 | 5.0 | 0.05 | 0.05 | 0.05 | 86 | 1011.3 |
| 20260901210018 | 82 | 11 | 3.0 | 5.0 | 0.05 | 0.00 | 0.05 | 86 | 1011.3 |
| 20260901205916 | 82 | 11 | 3.0 | 5.0 | 0.05 | 0.00 | 0.05 | 86 | 1011.3 |
| 20260901205817 | 82 | 11 | 3.0 | 5.0 | 0.05 | 0.00 | 0.05 | 86 | 1011.3 |
| 20260901205717 | 82 | 11 | 3.0 | 5.0 | 0.05 | 0.00 | 0.05 | 86 | 1011.2 |
| 20260901205616 | 82 | 11 | 3.0 | 5.0 | 0.05 | 0.00 | 0.05 | 86 | 1011.2 |
| 20260901205516 | 83 | 11 | 3.0 | 5.0 | 0.05 | 0.00 | 0.05 | 86 | 1011.3 |
| 20260901205415 | 83 | 11 | 3.0 | 5.0 | 0.05 | 0.00 | 0.05 | 86 | 1011.3 |
| 20260901205316 | 83 | 8 | 2.0 | 3.0 | 0.05 | 0.00 | 0.05 | 86 | 1011.3 |
| 20260901205215 | 83 | 8 | 2.0 | 3.0 | 0.05 | 0.00 | 0.05 | 86 | 1011.3 |
| 20260901205115 | 83 | 8 | 1.0 | 4.0 | 0.05 | 0.00 | 0.05 | 86 | 1011.3 |
| 20260901205016 | 83 | 10 | 3.0 | 4.0 | 0.03 | 0.00 | 0.03 | 85 | 1011.3 |
| 20260901204916 | 83 | 10 | 3.0 | 4.0 | 0.03 | 0.00 | 0.03 | 85 | 1011.3 |
| 20260901204814 | 83 | 10 | 3.0 | 4.0 | 0.03 | 0.00 | 0.03 | 85 | 1011.3 |
| 20260901204714 | 83 | 10 | 3.0 | 4.0 | 0.03 | 0.00 | 0.03 | 85 | 1011.3 |
| 20260901204615 | 83 | 10 | 3.0 | 4.0 | 0.03 | 0.00 | 0.03 | 85 | 1011.3 |
| 20260901204514 | 83 | 10 | 3.0 | 4.0 | 0.03 | 0.00 | 0.03 | 85 | 1011.3 |
| 20260901204415 | 83 | 10 | 3.0 | 4.0 | 0.03 | 0.00 | 0.03 | 85 | 1011.3 |
| 20260901204315 | 83 | 10 | 3.0 | 4.0 | 0.03 | 0.00 | 0.03 | 85 | 1011.3 |
| 20260901204213 | 83 | 10 | 3.0 | 4.0 | 0.03 | 0.00 | 0.03 | 85 | 1011.3 |
| 20260901204114 | 83 | 10 | 3.0 | 4.0 | 0.03 | 0.00 | 0.03 | 84 | 1011.2 |
| 20260901204013 | 84 | 10 | 3.0 | 4.0 | 0.03 | 0.00 | 0.03 | 84 | 1011.2 |
| 20260901203913 | 84 | 10 | 3.0 | 4.0 | 0.03 | 0.00 | 0.03 | 84 | 1011.3 |
| 20260901203815 | 84 | 10 | 4.0 | 4.0 | 0.03 | 0.00 | 0.03 | 82 | 1011.2 |
| 20260901203714 | 85 | 0 | 2.0 | 3.0 | 0.02 | 0.00 | 0.02 | 82 | 1011.2 |
| 20260901203614 | 85 | 0 | 2.0 | 4.0 | 0.02 | 0.00 | 0.02 | 82 | 1011.2 |
| 20260901203505 | 85 | 0 | 2.0 | 4.0 | 0.02 | 0.00 | 0.02 | 82 | 1011.2 |
| 20260901203403 | 85 | 0 | 2.0 | 4.0 | 0.02 | 0.00 | 0.02 | 82 | 1011.2 |
| 20260901203301 | 85 | 0 | 1.0 | 4.0 | 0.02 | 0.00 | 0.01 | 83 | 1011.2 |
| 20260901203203 | 85 | 0 | 2.0 | 4.0 | 0.01 | 0.00 | 0.01 | 81 | 1011.2 |
| 20260901203102 | 85 | 0 | 2.0 | 4.0 | 0.01 | 0.00 | 0.01 | 80 | 1011.2 |
| 20260901203004 | 86 | 0 | 2.0 | 4.0 | 0.01 | 0.00 | 0.01 | 79 | 1011.2 |
| 20260901202902 | 86 | 0 | 2.0 | 4.0 | 0.01 | 0.00 | 0.01 | 79 | 1011.2 |
| 20260901202801 | 86 | 0 | 2.0 | 4.0 | 0.01 | 0.00 | 0.01 | 77 | 1011.2 |
| 20260901202701 | 87 | 0 | 3.0 | 4.0 | 0.01 | 0.00 | 0.01 | 76 | 1011.2 |
| 20260901202603 | 87 | 0 | 2.0 | 5.0 | 0.00 | 0.00 | 0.00 | 76 | 1011.2 |
| 20260901202503 | 87 | 0 | 2.0 | 5.0 | 0.00 | 0.00 | 0.00 | 75 | 1011.3 |
| 20260901202402 | 87 | 0 | 3.0 | 5.0 | 0.00 | 0.00 | 0.00 | 75 | 1011.3 |
| 20260901202305 | 87 | 351 | 3.0 | 5.0 | 0.00 | 0.00 | 0.00 | 74 | 1011.3 |
| 20260901202205 | 88 | 333 | 3.0 | 7.0 | 0.00 | 0.00 | 0.00 | 74 | 1011.3 |
| 20260901202102 | 88 | 331 | 2.0 | 7.0 | 0.00 | 0.00 | 0.00 | 74 | 1011.3 |
| 20260901202004 | 88 | 327 | 3.0 | 7.0 | 0.00 | 0.00 | 0.00 | 73 | 1011.3 |
| 20260901201904 | 88 | 327 | 3.0 | 7.0 | 0.00 | 0.00 | 0.00 | 72 | 1011.3 |
| 20260901201802 | 88 | 327 | 3.0 | 7.0 | 0.00 | 0.00 | 0.00 | 72 | 1011.3 |
| 20260901201702 | 88 | 0 | 3.0 | 7.0 | 0.00 | 0.00 | 0.00 | 71 | 1011.3 |
| 20260901201603 | 88 | 324 | 4.0 | 7.0 | 0.00 | 0.00 | 0.00 | 71 | 1011.3 |
| 20260901201502 | 88 | 331 | 4.0 | 7.0 | 0.00 | 0.00 | 0.00 | 71 | 1011.3 |
| 20260901201400 | 88 | 331 | 4.0 | 7.0 | 0.00 | 0.00 | 0.00 | 71 | 1011.4 |
| 20260901201259 | 88 | 307 | 4.0 | 7.0 | 0.00 | 0.00 | 0.00 | 71 | 1011.4 |
| 20260901201159 | 88 | 317 | 3.0 | 6.0 | 0.00 | 0.00 | 0.00 | 71 | 1011.4 |
| 20260901201056 | 88 | 354 | 3.0 | 7.0 | 0.00 | 0.00 | 0.00 | 71 | 1011.4 |
| 20260901200954 | 88 | 313 | 3.0 | 7.0 | 0.00 | 0.00 | 0.00 | 72 | 1011.4 |
| 20260901200853 | 88 | 336 | 4.0 | 7.0 | 0.00 | 0.00 | 0.00 | 72 | 1011.5 |
| 20260901200744 | 88 | 336 | 4.0 | 7.0 | 0.00 | 0.00 | 0.00 | 71 | 1011.5 |
| 20260901200640 | 88 | 321 | 4.0 | 10.0 | 0.00 | 0.00 | 0.00 | 71 | 1011.5 |
| 20260901200535 | 88 | 331 | 4.0 | 10.0 | 0.00 | 0.00 | 0.00 | 71 | 1011.6 |
| 20260901200434 | 88 | 331 | 3.0 | 10.0 | 0.00 | 0.00 | 0.00 | 72 | 1011.5 |
| 20260901200331 | 88 | 350 | 4.0 | 10.0 | 0.00 | 0.00 | 0.00 | 71 | 1011.6 |
| 20260901200230 | 89 | 345 | 5.0 | 10.0 | 0.00 | 0.00 | 0.00 | 71 | 1011.6 |
| 20260901200132 | 89 | 312 | 5.0 | 10.0 | 0.00 | 0.00 | 0.00 | 71 | 1011.7 |
| 20260901200033 | 89 | 313 | 4.0 | 10.0 | 0.00 | 0.00 | 0.00 | 71 | 1011.7 |
| 20260901195932 | 89 | 309 | 4.0 | 10.0 | 0.00 | 0.00 | 0.00 | 71 | 1011.8 |
| 20260901195831 | 89 | 309 | 5.0 | 10.0 | 0.00 | 0.00 | 0.00 | 71 | 1011.8 |
| 20260901195733 | 89 | 300 | 6.0 | 10.0 | 0.00 | 0.00 | 0.00 | 71 | 1011.8 |
| 20260901195631 | 89 | 300 | 5.0 | 7.0 | 0.00 | 0.00 | 0.00 | 70 | 1011.9 |
| 20260901195531 | 89 | 313 | 5.0 | 6.0 | 0.00 | 0.00 | 0.00 | 70 | 1011.9 |
| 20260901195432 | 89 | 302 | 3.0 | 6.0 | 0.00 | 0.00 | 0.00 | 71 | 1012.0 |
| 20260901195333 | 89 | 337 | 3.0 | 6.0 | 0.00 | 0.00 | 0.00 | 71 | 1012.0 |
| 20260901195231 | 89 | 338 | 3.0 | 6.0 | 0.00 | 0.00 | 0.00 | 71 | 1012.0 |
| 20260901195132 | 89 | 345 | 2.0 | 9.0 | 0.00 | 0.00 | 0.00 | 71 | 1012.0 |
| 20260901195032 | 89 | 345 | 3.0 | 10.0 | 0.00 | 0.00 | 0.00 | 72 | 1012.1 |
| 20260901194934 | 88 | 345 | 3.0 | 10.0 | 0.00 | 0.00 | 0.00 | 71 | 1012.1 |
| 20260901194830 | 88 | 316 | 4.0 | 10.0 | 0.00 | 0.00 | 0.00 | 71 | 1012.1 |
| 20260901194731 | 88 | 307 | 4.0 | 10.0 | 0.00 | 0.00 | 0.00 | 72 | 1012.1 |
| 20260901194630 | 88 | 351 | 4.0 | 10.0 | 0.00 | 0.00 | 0.00 | 72 | 1012.2 |
| 20260901194529 | 88 | 317 | 4.0 | 10.0 | 0.00 | 0.00 | 0.00 | 71 | 1012.2 |
| 20260901194429 | 88 | 298 | 4.0 | 10.0 | 0.00 | 0.00 | 0.00 | 71 | 1012.2 |
| 20260901194327 | 88 | 309 | 5.0 | 10.0 | 0.00 | 0.00 | 0.00 | 71 | 1012.2 |
| 20260901194224 | 88 | 303 | 6.0 | 10.0 | 0.00 | 0.00 | 0.00 | 71 | 1012.2 |
| 20260901194123 | 88 | 300 | 6.0 | 10.0 | 0.00 | 0.00 | 0.00 | 71 | 1012.2 |
| 20260901194021 | 88 | 298 | 6.0 | 9.0 | 0.00 | 0.00 | 0.00 | 71 | 1012.2 |
| 20260901193921 | 88 | 321 | 5.0 | 9.0 | 0.00 | 0.00 | 0.00 | 71 | 1012.3 |
| 20260901193820 | 88 | 326 | 4.0 | 9.0 | 0.00 | 0.00 | 0.00 | 71 | 1012.3 |
| 20260901193717 | 88 | 337 | 4.0 | 9.0 | 0.00 | 0.00 | 0.00 | 71 | 1012.3 |
| 20260901193617 | 88 | 319 | 5.0 | 9.0 | 0.00 | 0.00 | 0.00 | 72 | 1012.3 |
| 20260901193515 | 88 | 307 | 6.0 | 9.0 | 0.00 | 0.00 | 0.00 | 71 | 1012.3 |
| 20260901193414 | 88 | 300 | 6.0 | 9.0 | 0.00 | 0.00 | 0.00 | 71 | 1012.4 |
| 20260901193309 | 88 | 231 | 4.0 | 6.0 | 0.00 | 0.00 | 0.00 | 70 | 1012.4 |
| 20260901193206 | 89 | 312 | 3.0 | 6.0 | 0.00 | 0.00 | 0.00 | 70 | 1012.5 |
| 20260901193105 | 89 | 286 | 3.0 | 6.0 | 0.00 | 0.00 | 0.00 | 71 | 1012.5 |
| 20260901193003 | 89 | 323 | 2.0 | 6.0 | 0.00 | 0.00 | 0.00 | 70 | 1012.5 |
| 20260901192903 | 89 | 323 | 1.0 | 6.0 | 0.00 | 0.00 | 0.00 | 70 | 1012.4 |
| 20260901192801 | 89 | 323 | 1.0 | 6.0 | 0.00 | 0.00 | 0.00 | 70 | 1012.5 |
| 20260901192702 | 89 | 323 | 1.0 | 6.0 | 0.00 | 0.00 | 0.00 | 70 | 1012.5 |
| 20260901192601 | 89 | 323 | 2.0 | 6.0 | 0.00 | 0.00 | 0.00 | 71 | 1012.6 |
| 20260901192503 | 89 | 323 | 4.0 | 6.0 | 0.00 | 0.00 | 0.00 | 71 | 1012.5 |
| 20260901192404 | 89 | 323 | 4.0 | 6.0 | 0.00 | 0.00 | 0.00 | 71 | 1012.6 |
| 20260901192306 | 89 | 314 | 4.0 | 6.0 | 0.00 | 0.00 | 0.00 | 71 | 1012.5 |
| 20260901192202 | 88 | 296 | 4.0 | 5.0 | 0.00 | 0.00 | 0.00 | 72 | 1012.6 |
| 20260901192103 | 88 | 295 | 3.0 | 5.0 | 0.00 | 0.00 | 0.00 | 71 | 1012.6 |
| 20260901192004 | 88 | 310 | 2.0 | 4.0 | 0.00 | 0.00 | 0.00 | 72 | 1012.5 |
| 20260901191902 | 88 | 320 | 2.0 | 4.0 | 0.00 | 0.00 | 0.00 | 72 | 1012.5 |
| 20260901191802 | 88 | 320 | 2.0 | 4.0 | 0.00 | 0.00 | 0.00 | 72 | 1012.6 |
| 20260901191704 | 88 | 320 | 3.0 | 4.0 | 0.00 | 0.00 | 0.00 | 71 | 1012.6 |
| 20260901191603 | 88 | 320 | 2.0 | 4.0 | 0.00 | 0.00 | 0.00 | 72 | 1012.5 |
| 20260901191501 | 88 | 305 | 1.0 | 4.0 | 0.00 | 0.00 | 0.00 | 72 | 1012.6 |
| 20260901191403 | 88 | 303 | 1.0 | 4.0 | 0.00 | 0.00 | 0.00 | 72 | 1012.6 |
| 20260901191303 | 88 | 303 | 1.0 | 4.0 | 0.00 | 0.00 | 0.00 | 71 | 1012.6 |
| 20260901191203 | 88 | 303 | 2.0 | 4.0 | 0.00 | 0.00 | 0.00 | 71 | 1012.5 |
| 20260901191102 | 88 | 303 | 2.0 | 4.0 | 0.00 | 0.00 | 0.00 | 72 | 1012.6 |
| 20260901191003 | 88 | 340 | 2.0 | 4.0 | 0.00 | 0.00 | 0.00 | 71 | 1012.6 |
| 20260901190902 | 88 | 340 | 3.0 | 4.0 | 0.00 | 0.00 | 0.00 | 72 | 1012.5 |
| 20260901190802 | 88 | 340 | 2.0 | 4.0 | 0.00 | 0.00 | 0.00 | 72 | 1012.5 |
| 20260901190704 | 88 | 303 | 2.0 | 4.0 | 0.00 | 0.00 | 0.00 | 73 | 1012.4 |
| 20260901190602 | 88 | 303 | 2.0 | 4.0 | 0.00 | 0.00 | 0.00 | 73 | 1012.5 |
| 20260901190502 | 88 | 303 | 2.0 | 4.0 | 0.00 | 0.00 | 0.00 | 73 | 1012.5 |
| 20260901190403 | 88 | 303 | 2.0 | 4.0 | 0.00 | 0.00 | 0.00 | 74 | 1012.5 |
| 20260901190303 | 87 | 303 | 2.0 | 4.0 | 0.00 | 0.00 | 0.00 | 73 | 1012.5 |
| 20260901190202 | 87 | 303 | 2.0 | 4.0 | 0.00 | 0.00 | 0.00 | 74 | 1012.4 |
| 20260901190005 | 87 | 302 | 2.0 | 4.0 | 0.00 | 0.00 | 0.00 | 75 | 1012.4 |
| 20260901185904 | 87 | 302 | 2.0 | 4.0 | 0.00 | 0.00 | 0.00 | 75 | 1012.3 |
| 20260901185803 | 87 | 302 | 2.0 | 4.0 | 0.00 | 0.00 | 0.00 | 75 | 1012.3 |
| 20260901185704 | 87 | 302 | 2.0 | 4.0 | 0.00 | 0.00 | 0.00 | 76 | 1012.3 |
| 20260901185605 | 87 | 302 | 2.0 | 4.0 | 0.00 | 0.00 | 0.00 | 77 | 1012.3 |
| 20260901185502 | 86 | 302 | 2.0 | 4.0 | 0.00 | 0.00 | 0.00 | 78 | 1012.4 |
| 20260901185402 | 86 | 302 | 2.0 | 4.0 | 0.00 | 0.00 | 0.00 | 77 | 1012.4 |
| 20260901185305 | 86 | 302 | 2.0 | 4.0 | 0.00 | 0.00 | 0.00 | 76 | 1012.3 |
| 20260901185202 | 86 | 302 | 3.0 | 4.0 | 0.00 | 0.00 | 0.00 | 77 | 1012.3 |
| 20260901185102 | 86 | 302 | 2.0 | 4.0 | 0.00 | 0.00 | 0.00 | 77 | 1012.3 |
| 20260901185004 | 86 | 299 | 2.0 | 4.0 | 0.00 | 0.00 | 0.00 | 76 | 1012.3 |
| 20260901184858 | 86 | 298 | 3.0 | 4.0 | 0.00 | 0.00 | 0.00 | 77 | 1012.3 |
| 20260901184757 | 86 | 299 | 3.0 | 4.0 | 0.00 | 0.00 | 0.00 | 77 | 1012.3 |
| 20260901184654 | 86 | 317 | 3.0 | 4.0 | 0.00 | 0.00 | 0.00 | 78 | 1012.3 |
| 20260901184551 | 86 | 319 | 3.0 | 4.0 | 0.00 | 0.00 | 0.00 | 77 | 1012.3 |
| 20260901184450 | 86 | 326 | 3.0 | 4.0 | 0.00 | 0.00 | 0.00 | 77 | 1012.4 |
| 20260901184349 | 86 | 326 | 3.0 | 4.0 | 0.00 | 0.00 | 0.00 | 77 | 1012.3 |
| 20260901184246 | 86 | 326 | 2.0 | 4.0 | 0.00 | 0.00 | 0.00 | 78 | 1012.4 |
| 20260901184147 | 86 | 326 | 2.0 | 4.0 | 0.00 | 0.00 | 0.00 | 78 | 1012.3 |
| 20260901184045 | 86 | 307 | 2.0 | 4.0 | 0.00 | 0.00 | 0.00 | 77 | 1012.3 |
| 20260901183943 | 86 | 307 | 2.0 | 4.0 | 0.00 | 0.00 | 0.00 | 77 | 1012.3 |
| 20260901183842 | 86 | 307 | 2.0 | 5.0 | 0.00 | 0.00 | 0.00 | 77 | 1012.4 |
| 20260901183738 | 86 | 307 | 2.0 | 5.0 | 0.00 | 0.00 | 0.00 | 78 | 1012.3 |
| 20260901183635 | 86 | 307 | 2.0 | 5.0 | 0.00 | 0.00 | 0.00 | 78 | 1012.3 |
| 20260901183533 | 86 | 306 | 3.0 | 5.0 | 0.00 | 0.00 | 0.00 | 77 | 1012.4 |
| 20260901183432 | 86 | 307 | 2.0 | 5.0 | 0.00 | 0.00 | 0.00 | 78 | 1012.3 |
| 20260901183330 | 86 | 326 | 2.0 | 5.0 | 0.00 | 0.00 | 0.00 | 77 | 1012.4 |
| 20260901183232 | 86 | 326 | 2.0 | 5.0 | 0.00 | 0.00 | 0.00 | 77 | 1012.4 |
| 20260901183132 | 86 | 326 | 3.0 | 5.0 | 0.00 | 0.00 | 0.00 | 77 | 1012.4 |
| 20260901183031 | 86 | 326 | 3.0 | 5.0 | 0.00 | 0.00 | 0.00 | 78 | 1012.4 |
| 20260901182931 | 86 | 326 | 2.0 | 5.0 | 0.00 | 0.00 | 0.00 | 78 | 1012.4 |
| 20260901182831 | 86 | 343 | 2.0 | 4.0 | 0.00 | 0.00 | 0.00 | 77 | 1012.5 |
| 20260901182731 | 86 | 343 | 2.0 | 4.0 | 0.00 | 0.00 | 0.00 | 77 | 1012.4 |
| 20260901182630 | 86 | 343 | 2.0 | 4.0 | 0.00 | 0.00 | 0.00 | 77 | 1012.4 |
| 20260901182532 | 86 | 343 | 2.0 | 4.0 | 0.00 | 0.00 | 0.00 | 77 | 1012.4 |
| 20260901182431 | 86 | 343 | 3.0 | 4.0 | 0.00 | 0.00 | 0.00 | 78 | 1012.5 |
| 20260901182332 | 86 | 343 | 2.0 | 4.0 | 0.00 | 0.00 | 0.00 | 79 | 1012.5 |
| 20260901182232 | 86 | 343 | 2.0 | 4.0 | 0.00 | 0.00 | 0.00 | 79 | 1012.5 |
| 20260901182132 | 86 | 343 | 3.0 | 4.0 | 0.00 | 0.00 | 0.00 | 79 | 1012.6 |
| 20260901182031 | 86 | 344 | 3.0 | 4.0 | 0.00 | 0.00 | 0.00 | 78 | 1012.6 |
| 20260901181932 | 86 | 354 | 2.0 | 4.0 | 0.00 | 0.00 | 0.00 | 77 | 1012.6 |
| 20260901181832 | 86 | 0 | 2.0 | 4.0 | 0.00 | 0.00 | 0.00 | 77 | 1012.7 |
| 20260901181731 | 86 | 0 | 2.0 | 4.0 | 0.00 | 0.00 | 0.00 | 78 | 1012.6 |
| 20260901181630 | 86 | 0 | 2.0 | 4.0 | 0.00 | 0.00 | 0.00 | 79 | 1012.7 |
| 20260901181530 | 86 | 0 | 3.0 | 4.0 | 0.00 | 0.00 | 0.00 | 78 | 1012.7 |
| 20260901181430 | 86 | 0 | 3.0 | 4.0 | 0.00 | 0.00 | 0.00 | 79 | 1012.7 |
| 20260901181330 | 86 | 0 | 3.0 | 4.0 | 0.00 | 0.00 | 0.00 | 80 | 1012.7 |
| 20260901181228 | 86 | 0 | 3.0 | 4.0 | 0.00 | 0.00 | 0.00 | 80 | 1012.8 |
| 20260901181126 | 86 | 350 | 3.0 | 4.0 | 0.00 | 0.00 | 0.00 | 81 | 1012.8 |
| 20260901181026 | 86 | 0 | 2.0 | 4.0 | 0.00 | 0.00 | 0.00 | 80 | 1012.7 |
| 20260901180923 | 86 | 0 | 2.0 | 4.0 | 0.00 | 0.00 | 0.00 | 81 | 1012.8 |
| 20260901180823 | 87 | 0 | 2.0 | 4.0 | 0.00 | 0.00 | 0.00 | 80 | 1012.8 |
| 20260901180721 | 87 | 8 | 1.0 | 3.0 | 0.00 | 0.00 | 0.00 | 81 | 1012.9 |
| 20260901180618 | 87 | 8 | 1.0 | 3.0 | 0.00 | 0.00 | 0.00 | 82 | 1012.9 |
| 20260901180516 | 87 | 8 | 1.0 | 3.0 | 0.00 | 0.00 | 0.00 | 81 | 1012.8 |
| 20260901180417 | 87 | 8 | 1.0 | 3.0 | 0.00 | 0.00 | 0.00 | 81 | 1012.9 |
| 20260901180316 | 86 | 10 | 1.0 | 3.0 | 0.00 | 0.00 | 0.00 | 80 | 1012.9 |
| 20260901180213 | 86 | 10 | 2.0 | 3.0 | 0.00 | 0.00 | 0.00 | 80 | 1012.9 |
| 20260901180111 | 86 | 10 | 2.0 | 3.0 | 0.00 | 0.00 | 0.00 | 77 | 1012.8 |
| 20260901180012 | 87 | 10 | 2.0 | 3.0 | 0.00 | 0.00 | 0.00 | 81 | 1013.0 |
| 20260901175909 | 87 | 30 | 1.0 | 3.0 | 0.00 | 0.00 | 0.00 | 79 | 1012.9 |
| 20260901175809 | 87 | 30 | 0.0 | 3.0 | 0.00 | 0.00 | 0.00 | 80 | 1012.9 |
| 20260901175712 | 87 | 30 | 0.0 | 3.0 | 0.00 | 0.00 | 0.00 | 81 | 1013.0 |
| 20260901175610 | 86 | 30 | 0.0 | 3.0 | 0.00 | 0.00 | 0.00 | 80 | 1013.1 |
| 20260901175509 | 86 | 30 | 0.0 | 3.0 | 0.00 | 0.00 | 0.00 | 78 | 1013.0 |
| 20260901175409 | 86 | 30 | 1.0 | 3.0 | 0.00 | 0.00 | 0.00 | 77 | 1013.1 |
| 20260901175310 | 86 | 30 | 1.0 | 3.0 | 0.00 | 0.00 | 0.00 | 78 | 1013.0 |
| 20260901175211 | 86 | 30 | 1.0 | 3.0 | 0.00 | 0.00 | 0.00 | 78 | 1013.1 |
| 20260901175109 | 86 | 30 | 1.0 | 3.0 | 0.00 | 0.00 | 0.00 | 78 | 1013.1 |
| 20260901175010 | 86 | 30 | 1.0 | 3.0 | 0.00 | 0.00 | 0.00 | 78 | 1013.1 |
| 20260901174910 | 86 | 31 | 1.0 | 4.0 | 0.00 | 0.00 | 0.00 | 78 | 1013.1 |
| 20260901174809 | 86 | 31 | 2.0 | 4.0 | 0.00 | 0.00 | 0.00 | 78 | 1013.1 |
| 20260901174709 | 86 | 31 | 1.0 | 4.0 | 0.00 | 0.00 | 0.00 | 78 | 1013.1 |
| 20260901174610 | 86 | 32 | 1.0 | 4.0 | 0.00 | 0.00 | 0.00 | 77 | 1013.2 |
| 20260901174509 | 86 | 32 | 2.0 | 5.0 | 0.00 | 0.00 | 0.00 | 76 | 1013.3 |
| 20260901174409 | 86 | 31 | 2.0 | 5.0 | 0.00 | 0.00 | 0.00 | 77 | 1013.3 |
| 20260901174311 | 86 | 31 | 1.0 | 5.0 | 0.00 | 0.00 | 0.00 | 79 | 1013.4 |
| 20260901174210 | 86 | 31 | 1.0 | 5.0 | 0.00 | 0.00 | 0.00 | 78 | 1013.3 |
| 20260901174110 | 86 | 31 | 2.0 | 5.0 | 0.00 | 0.00 | 0.00 | 77 | 1013.3 |
| 20260901174015 | 86 | 31 | 2.0 | 5.0 | 0.00 | 0.00 | 0.00 | 77 | 1013.4 |
| 20260901173911 | 86 | 31 | 3.0 | 5.0 | 0.00 | 0.00 | 0.00 | 77 | 1013.5 |
| 20260901173809 | 86 | 31 | 2.0 | 5.0 | 0.00 | 0.00 | 0.00 | 77 | 1013.4 |
| 20260901173709 | 86 | 31 | 3.0 | 5.0 | 0.00 | 0.00 | 0.00 | 77 | 1013.5 |
| 20260901173610 | 86 | 62 | 3.0 | 5.0 | 0.00 | 0.00 | 0.00 | 77 | 1013.5 |
| 20260901173509 | 86 | 51 | 1.0 | 5.0 | 0.00 | 0.00 | 0.00 | 78 | 1013.5 |
| 20260901173409 | 86 | 49 | 2.0 | 5.0 | 0.00 | 0.00 | 0.00 | 78 | 1013.6 |
| 20260901173309 | 86 | 51 | 3.0 | 5.0 | 0.00 | 0.00 | 0.00 | 77 | 1013.6 |
| 20260901173210 | 86 | 51 | 4.0 | 5.0 | 0.00 | 0.00 | 0.00 | 76 | 1013.7 |
| 20260901173109 | 86 | 49 | 4.0 | 5.0 | 0.00 | 0.00 | 0.00 | 76 | 1013.6 |
| 20260901173009 | 86 | 49 | 4.0 | 5.0 | 0.00 | 0.00 | 0.00 | 76 | 1013.7 |
| 20260901172911 | 86 | 48 | 4.0 | 5.0 | 0.00 | 0.00 | 0.00 | 76 | 1013.6 |
| 20260901172809 | 86 | 48 | 4.0 | 5.0 | 0.00 | 0.00 | 0.00 | 75 | 1013.6 |
| 20260901172708 | 87 | 48 | 3.0 | 5.0 | 0.00 | 0.00 | 0.00 | 75 | 1013.7 |
| 20260901172610 | 87 | 54 | 3.0 | 7.0 | 0.00 | 0.00 | 0.00 | 75 | 1013.7 |
| 20260901172508 | 87 | 73 | 3.0 | 7.0 | 0.00 | 0.00 | 0.00 | 74 | 1013.7 |
| 20260901172410 | 87 | 73 | 4.0 | 7.0 | 0.00 | 0.00 | 0.00 | 74 | 1013.8 |
| 20260901172308 | 87 | 69 | 3.0 | 7.0 | 0.00 | 0.00 | 0.00 | 75 | 1013.7 |
| 20260901172209 | 87 | 25 | 2.0 | 7.0 | 0.00 | 0.00 | 0.00 | 74 | 1013.7 |
| 20260901172108 | 87 | 25 | 2.0 | 7.0 | 0.00 | 0.00 | 0.00 | 73 | 1013.7 |
| 20260901172009 | 87 | 25 | 3.0 | 7.0 | 0.00 | 0.00 | 0.00 | 72 | 1013.8 |
| 20260901171909 | 87 | 25 | 4.0 | 7.0 | 0.00 | 0.00 | 0.00 | 71 | 1013.8 |
| 20260901171808 | 87 | 25 | 5.0 | 7.0 | 0.00 | 0.00 | 0.00 | 71 | 1013.8 |
| 20260901171709 | 87 | 25 | 6.0 | 7.0 | 0.00 | 0.00 | 0.00 | 71 | 1013.8 |
| 20260901171608 | 87 | 35 | 5.0 | 7.0 | 0.00 | 0.00 | 0.00 | 71 | 1013.9 |
| 20260901171509 | 87 | 31 | 4.0 | 7.0 | 0.00 | 0.00 | 0.00 | 71 | 1013.9 |
| 20260901171408 | 87 | 45 | 4.0 | 6.0 | 0.00 | 0.00 | 0.00 | 71 | 1013.9 |
| 20260901171308 | 87 | 52 | 4.0 | 6.0 | 0.00 | 0.00 | 0.00 | 71 | 1013.9 |
| 20260901171208 | 87 | 55 | 4.0 | 6.0 | 0.00 | 0.00 | 0.00 | 71 | 1013.9 |
| 20260901171109 | 87 | 44 | 4.0 | 6.0 | 0.00 | 0.00 | 0.00 | 71 | 1013.9 |
| 20260901171008 | 87 | 44 | 4.0 | 6.0 | 0.00 | 0.00 | 0.00 | 72 | 1013.9 |
| 20260901170908 | 87 | 24 | 1.0 | 4.0 | 0.00 | 0.00 | 0.00 | 73 | 1013.9 |
| 20260901170809 | 87 | 24 | 1.0 | 4.0 | 0.00 | 0.00 | 0.00 | 73 | 1013.9 |
| 20260901170709 | 87 | 24 | 2.0 | 4.0 | 0.00 | 0.00 | 0.00 | 73 | 1013.9 |
| 20260901170608 | 87 | 24 | 2.0 | 4.0 | 0.00 | 0.00 | 0.00 | 73 | 1013.9 |
| 20260901170511 | 87 | 24 | 2.0 | 4.0 | 0.00 | 0.00 | 0.00 | 73 | 1014.0 |
| 20260901170409 | 87 | 24 | 2.0 | 4.0 | 0.00 | 0.00 | 0.00 | 73 | 1013.9 |
| 20260901170308 | 87 | 24 | 2.0 | 4.0 | 0.00 | 0.00 | 0.00 | 74 | 1014.0 |
| 20260901170208 | 86 | 24 | 2.0 | 4.0 | 0.00 | 0.00 | 0.00 | 74 | 1014.0 |
| 20260901170109 | 86 | 24 | 3.0 | 4.0 | 0.00 | 0.00 | 0.00 | 74 | 1014.0 |
| 20260901170009 | 86 | 24 | 3.0 | 4.0 | 0.00 | 0.00 | 0.00 | 73 | 1013.9 |
| 20260901165907 | 86 | 24 | 3.0 | 4.0 | 0.00 | 0.00 | 0.00 | 74 | 1013.8 |
| 20260901165805 | 87 | 23 | 2.0 | 4.0 | 0.00 | 0.00 | 0.00 | 74 | 1014.0 |
| 20260901165703 | 87 | 24 | 3.0 | 4.0 | 0.00 | 0.00 | 0.00 | 74 | 1013.9 |
| 20260901165603 | 87 | 354 | 3.0 | 4.0 | 0.00 | 0.00 | 0.00 | 73 | 1013.8 |
| 20260901165504 | 87 | 354 | 3.0 | 4.0 | 0.00 | 0.00 | 0.00 | 72 | 1013.9 |
| 20260901165403 | 87 | 0 | 2.0 | 4.0 | 0.00 | 0.00 | 0.00 | 73 | 1013.9 |
| 20260901165306 | 87 | 0 | 2.0 | 3.0 | 0.00 | 0.00 | 0.00 | 73 | 1013.9 |
| 20260901165202 | 87 | 0 | 2.0 | 3.0 | 0.00 | 0.00 | 0.00 | 72 | 1013.9 |
| 20260901165103 | 87 | 0 | 2.0 | 3.0 | 0.00 | 0.00 | 0.00 | 72 | 1013.9 |
| 20260901165003 | 87 | 0 | 2.0 | 3.0 | 0.00 | 0.00 | 0.00 | 72 | 1013.9 |
| 20260901164903 | 87 | 0 | 2.0 | 3.0 | 0.00 | 0.00 | 0.00 | 72 | 1013.9 |
| 20260901164803 | 87 | 0 | 2.0 | 3.0 | 0.00 | 0.00 | 0.00 | 72 | 1013.9 |
| 20260901164703 | 87 | 0 | 2.0 | 3.0 | 0.00 | 0.00 | 0.00 | 73 | 1014.0 |
| 20260901164602 | 87 | 0 | 2.0 | 3.0 | 0.00 | 0.00 | 0.00 | 74 | 1014.0 |
| 20260901164504 | 87 | 0 | 2.0 | 4.0 | 0.00 | 0.00 | 0.00 | 75 | 1014.0 |
| 20260901164403 | 87 | 0 | 2.0 | 4.0 | 0.00 | 0.00 | 0.00 | 74 | 1014.0 |
| 20260901164302 | 87 | 0 | 1.0 | 5.0 | 0.00 | 0.00 | 0.00 | 74 | 1014.1 |
| 20260901164203 | 87 | 0 | 1.0 | 5.0 | 0.00 | 0.00 | 0.00 | 74 | 1014.1 |
| 20260901164103 | 87 | 0 | 2.0 | 5.0 | 0.00 | 0.00 | 0.00 | 74 | 1014.1 |
| 20260901164004 | 87 | 0 | 2.0 | 5.0 | 0.00 | 0.00 | 0.00 | 73 | 1014.1 |
| 20260901163902 | 87 | 0 | 2.0 | 5.0 | 0.00 | 0.00 | 0.00 | 74 | 1014.1 |
| 20260901163802 | 87 | 25 | 1.0 | 5.0 | 0.00 | 0.00 | 0.00 | 73 | 1014.0 |
| 20260901163703 | 87 | 30 | 2.0 | 5.0 | 0.00 | 0.00 | 0.00 | 73 | 1014.0 |
| 20260901163602 | 87 | 30 | 2.0 | 5.0 | 0.00 | 0.00 | 0.00 | 73 | 1014.0 |
| 20260901163503 | 87 | 30 | 4.0 | 5.0 | 0.00 | 0.00 | 0.00 | 72 | 1014.1 |
| 20260901163403 | 87 | 32 | 3.0 | 5.0 | 0.00 | 0.00 | 0.00 | 73 | 1014.1 |
| 20260901163302 | 87 | 37 | 2.0 | 4.0 | 0.00 | 0.00 | 0.00 | 73 | 1014.1 |
| 20260901163202 | 87 | 336 | 1.0 | 5.0 | 0.00 | 0.00 | 0.00 | 74 | 1014.1 |
| 20260901163102 | 87 | 336 | 1.0 | 5.0 | 0.00 | 0.00 | 0.00 | 74 | 1014.1 |
| 20260901163004 | 87 | 336 | 1.0 | 5.0 | 0.00 | 0.00 | 0.00 | 74 | 1014.1 |
| 20260901162903 | 87 | 336 | 1.0 | 5.0 | 0.00 | 0.00 | 0.00 | 74 | 1014.2 |
| 20260901162803 | 87 | 336 | 2.0 | 5.0 | 0.00 | 0.00 | 0.00 | 74 | 1014.1 |
| 20260901162702 | 87 | 336 | 2.0 | 5.0 | 0.00 | 0.00 | 0.00 | 74 | 1014.1 |
| 20260901162602 | 87 | 336 | 2.0 | 5.0 | 0.00 | 0.00 | 0.00 | 74 | 1014.1 |
| 20260901162504 | 87 | 336 | 2.0 | 6.0 | 0.00 | 0.00 | 0.00 | 74 | 1014.2 |
| 20260901162402 | 87 | 336 | 3.0 | 7.0 | 0.00 | 0.00 | 0.00 | 74 | 1014.2 |
| 20260901162306 | 87 | 336 | 2.0 | 7.0 | 0.00 | 0.00 | 0.00 | 74 | 1014.2 |
| 20260901162203 | 87 | 338 | 2.0 | 7.0 | 0.00 | 0.00 | 0.00 | 74 | 1014.1 |
| 20260901162103 | 87 | 338 | 3.0 | 7.0 | 0.00 | 0.00 | 0.00 | 73 | 1014.1 |
| 20260901162003 | 87 | 340 | 3.0 | 7.0 | 0.00 | 0.00 | 0.00 | 73 | 1014.1 |
| 20260901161903 | 87 | 340 | 3.0 | 7.0 | 0.00 | 0.00 | 0.00 | 73 | 1014.1 |
| 20260901161803 | 87 | 340 | 3.0 | 7.0 | 0.00 | 0.00 | 0.00 | 73 | 1014.1 |
| 20260901161702 | 87 | 340 | 4.0 | 7.0 | 0.00 | 0.00 | 0.00 | 73 | 1014.0 |
| 20260901161602 | 87 | 340 | 5.0 | 7.0 | 0.00 | 0.00 | 0.00 | 73 | 1014.0 |
| 20260901161502 | 87 | 7 | 5.0 | 7.0 | 0.00 | 0.00 | 0.00 | 73 | 1014.0 |
| 20260901161402 | 87 | 3 | 3.0 | 6.0 | 0.00 | 0.00 | 0.00 | 73 | 1014.0 |
| 20260901161303 | 87 | 0 | 2.0 | 9.0 | 0.00 | 0.00 | 0.00 | 73 | 1014.0 |
| 20260901161203 | 87 | 21 | 3.0 | 10.0 | 0.00 | 0.00 | 0.00 | 73 | 1013.9 |
| 20260901161102 | 87 | 350 | 4.0 | 10.0 | 0.00 | 0.00 | 0.00 | 73 | 1014.0 |
| 20260901161003 | 87 | 0 | 4.0 | 10.0 | 0.00 | 0.00 | 0.00 | 73 | 1013.9 |
| 20260901160904 | 87 | 0 | 4.0 | 10.0 | 0.00 | 0.00 | 0.00 | 73 | 1014.0 |
| 20260901160802 | 87 | 0 | 4.0 | 10.0 | 0.00 | 0.00 | 0.00 | 73 | 1013.9 |
| 20260901160659 | 87 | 0 | 3.0 | 10.0 | 0.00 | 0.00 | 0.00 | 73 | 1013.9 |
| 20260901160559 | 87 | 358 | 3.0 | 10.0 | 0.00 | 0.00 | 0.00 | 73 | 1013.9 |
| 20260901160457 | 87 | 0 | 5.0 | 10.0 | 0.00 | 0.00 | 0.00 | 73 | 1014.0 |
| 20260901160355 | 87 | 351 | 6.0 | 10.0 | 0.00 | 0.00 | 0.00 | 73 | 1013.9 |
| 20260901160253 | 87 | 345 | 6.0 | 10.0 | 0.00 | 0.00 | 0.00 | 73 | 1013.9 |
| 20260901160153 | 87 | 347 | 5.0 | 10.0 | 0.00 | 0.00 | 0.00 | 73 | 1013.9 |
| 20260901160051 | 87 | 0 | 4.0 | 10.0 | 0.00 | 0.00 | 0.00 | 72 | 1013.9 |
| 20260901155949 | 87 | 347 | 4.0 | 10.0 | 0.00 | 0.00 | 0.00 | 73 | 1013.9 |
| 20260901155847 | 87 | 350 | 4.0 | 10.0 | 0.00 | 0.00 | 0.00 | 73 | 1013.9 |
| 20260901155747 | 87 | 7 | 4.0 | 10.0 | 0.00 | 0.00 | 0.00 | 72 | 1013.9 |
| 20260901155644 | 87 | 0 | 6.0 | 10.0 | 0.00 | 0.00 | 0.00 | 72 | 1013.9 |
| 20260901155543 | 88 | 340 | 7.0 | 10.0 | 0.00 | 0.00 | 0.00 | 72 | 1013.9 |
| 20260901155443 | 88 | 0 | 5.0 | 10.0 | 0.00 | 0.00 | 0.00 | 72 | 1013.9 |
| 20260901155337 | 88 | 3 | 5.0 | 10.0 | 0.00 | 0.00 | 0.00 | 72 | 1013.8 |
| 20260901155237 | 88 | 8 | 5.0 | 10.0 | 0.00 | 0.00 | 0.00 | 72 | 1013.9 |
| 20260901155133 | 88 | 357 | 4.0 | 9.0 | 0.00 | 0.00 | 0.00 | 72 | 1013.8 |
| 20260901155032 | 88 | 0 | 4.0 | 9.0 | 0.00 | 0.00 | 0.00 | 72 | 1013.8 |
| 20260901154931 | 88 | 17 | 4.0 | 9.0 | 0.00 | 0.00 | 0.00 | 72 | 1013.8 |
| 20260901154832 | 88 | 314 | 3.0 | 9.0 | 0.00 | 0.00 | 0.00 | 73 | 1013.8 |
| 20260901154731 | 88 | 4 | 3.0 | 9.0 | 0.00 | 0.00 | 0.00 | 72 | 1013.8 |
| 20260901154631 | 88 | 333 | 4.0 | 9.0 | 0.00 | 0.00 | 0.00 | 72 | 1013.7 |
| 20260901154532 | 88 | 20 | 5.0 | 9.0 | 0.00 | 0.00 | 0.00 | 72 | 1013.7 |
| 20260901154431 | 88 | 17 | 6.0 | 11.0 | 0.00 | 0.00 | 0.00 | 73 | 1013.8 |
| 20260901154330 | 88 | 0 | 5.0 | 11.0 | 0.00 | 0.00 | 0.00 | 72 | 1013.6 |
| 20260901154231 | 88 | 344 | 5.0 | 11.0 | 0.00 | 0.00 | 0.00 | 72 | 1013.6 |
| 20260901154132 | 88 | 0 | 5.0 | 11.0 | 0.00 | 0.00 | 0.00 | 73 | 1013.7 |
| 20260901154031 | 88 | 3 | 5.0 | 11.0 | 0.00 | 0.00 | 0.00 | 73 | 1013.6 |
| 20260901153931 | 88 | 355 | 5.0 | 11.0 | 0.00 | 0.00 | 0.00 | 73 | 1013.7 |
| 20260901153832 | 88 | 25 | 5.0 | 11.0 | 0.00 | 0.00 | 0.00 | 73 | 1013.7 |
| 20260901153731 | 87 | 13 | 4.0 | 11.0 | 0.00 | 0.00 | 0.00 | 73 | 1013.7 |
| 20260901153630 | 87 | 343 | 6.0 | 11.0 | 0.00 | 0.00 | 0.00 | 74 | 1013.7 |
| 20260901153531 | 87 | 17 | 7.0 | 11.0 | 0.00 | 0.00 | 0.00 | 73 | 1013.8 |
| 20260901153432 | 87 | 30 | 6.0 | 11.0 | 0.00 | 0.00 | 0.00 | 73 | 1013.7 |
| 20260901153331 | 87 | 18 | 6.0 | 11.0 | 0.00 | 0.00 | 0.00 | 73 | 1013.8 |
| 20260901153231 | 87 | 25 | 7.0 | 11.0 | 0.00 | 0.00 | 0.00 | 74 | 1013.8 |
| 20260901153133 | 87 | 347 | 7.0 | 11.0 | 0.00 | 0.00 | 0.00 | 74 | 1013.8 |
| 20260901153032 | 87 | 30 | 6.0 | 11.0 | 0.00 | 0.00 | 0.00 | 74 | 1013.8 |
| 20260901152931 | 87 | 24 | 6.0 | 9.0 | 0.00 | 0.00 | 0.00 | 74 | 1013.8 |
| 20260901152831 | 87 | 0 | 6.0 | 11.0 | 0.00 | 0.00 | 0.00 | 74 | 1013.7 |
| 20260901152732 | 87 | 348 | 5.0 | 11.0 | 0.00 | 0.00 | 0.00 | 74 | 1013.8 |
| 20260901152631 | 87 | 0 | 5.0 | 11.0 | 0.00 | 0.00 | 0.00 | 74 | 1013.8 |
| 20260901152531 | 87 | 333 | 5.0 | 11.0 | 0.00 | 0.00 | 0.00 | 74 | 1013.6 |
| 20260901152431 | 87 | 327 | 5.0 | 11.0 | 0.00 | 0.00 | 0.00 | 74 | 1013.7 |
| 20260901152331 | 87 | 355 | 5.0 | 11.0 | 0.00 | 0.00 | 0.00 | 74 | 1013.7 |
| 20260901152230 | 87 | 347 | 4.0 | 11.0 | 0.00 | 0.00 | 0.00 | 74 | 1013.7 |
| 20260901152132 | 87 | 323 | 6.0 | 11.0 | 0.00 | 0.00 | 0.00 | 74 | 1013.8 |
| 20260901152032 | 87 | 323 | 6.0 | 11.0 | 0.00 | 0.00 | 0.00 | 74 | 1013.8 |
| 20260901151933 | 87 | 344 | 6.0 | 11.0 | 0.00 | 0.00 | 0.00 | 74 | 1013.8 |
| 20260901151830 | 87 | 347 | 5.0 | 10.0 | 0.00 | 0.00 | 0.00 | 75 | 1013.8 |
| 20260901151731 | 87 | 321 | 5.0 | 9.0 | 0.00 | 0.00 | 0.00 | 75 | 1013.8 |
| 20260901151631 | 87 | 329 | 5.0 | 9.0 | 0.00 | 0.00 | 0.00 | 75 | 1013.8 |
| 20260901151532 | 87 | 350 | 4.0 | 9.0 | 0.00 | 0.00 | 0.00 | 75 | 1013.8 |
| 20260901151427 | 87 | 0 | 4.0 | 9.0 | 0.00 | 0.00 | 0.00 | 75 | 1013.9 |
| 20260901151325 | 87 | 0 | 4.0 | 9.0 | 0.00 | 0.00 | 0.00 | 75 | 1013.9 |
| 20260901151224 | 87 | 0 | 4.0 | 9.0 | 0.00 | 0.00 | 0.00 | 75 | 1013.9 |
| 20260901151123 | 87 | 8 | 5.0 | 9.0 | 0.00 | 0.00 | 0.00 | 75 | 1014.0 |
| 20260901151022 | 87 | 25 | 5.0 | 9.0 | 0.00 | 0.00 | 0.00 | 75 | 1014.0 |
| 20260901150920 | 87 | 24 | 4.0 | 9.0 | 0.00 | 0.00 | 0.00 | 76 | 1014.0 |
| 20260901150817 | 87 | 0 | 4.0 | 9.0 | 0.00 | 0.00 | 0.00 | 76 | 1014.0 |
| 20260901150719 | 87 | 34 | 4.0 | 9.0 | 0.00 | 0.00 | 0.00 | 76 | 1013.9 |
| 20260901150615 | 86 | 0 | 5.0 | 9.0 | 0.00 | 0.00 | 0.00 | 76 | 1014.0 |
| 20260901150515 | 86 | 41 | 6.0 | 9.0 | 0.00 | 0.00 | 0.00 | 76 | 1013.9 |
| 20260901150414 | 86 | 34 | 5.0 | 9.0 | 0.00 | 0.00 | 0.00 | 77 | 1013.9 |
| 20260901150311 | 86 | 37 | 3.0 | 9.0 | 0.00 | 0.00 | 0.00 | 78 | 1013.8 |
| 20260901150209 | 86 | 348 | 3.0 | 7.0 | 0.00 | 0.00 | 0.00 | 78 | 1013.8 |
| 20260901150108 | 86 | 345 | 4.0 | 7.0 | 0.00 | 0.00 | 0.00 | 79 | 1013.9 |
| 20260901150007 | 86 | 10 | 3.0 | 7.0 | 0.00 | 0.00 | 0.00 | 79 | 1013.8 |
| 20260901145905 | 86 | 13 | 3.0 | 7.0 | 0.00 | 0.00 | 0.00 | 79 | 1013.9 |
| 20260901145805 | 86 | 7 | 3.0 | 7.0 | 0.00 | 0.00 | 0.00 | 79 | 1013.9 |
| 20260901145705 | 86 | 10 | 4.0 | 7.0 | 0.00 | 0.00 | 0.00 | 79 | 1013.9 |
| 20260901145605 | 85 | 358 | 3.0 | 7.0 | 0.00 | 0.00 | 0.00 | 79 | 1013.9 |
| 20260901145505 | 85 | 0 | 3.0 | 7.0 | 0.00 | 0.00 | 0.00 | 79 | 1013.9 |
| 20260901145405 | 85 | 0 | 4.0 | 7.0 | 0.00 | 0.00 | 0.00 | 80 | 1013.9 |
| 20260901145306 | 85 | 32 | 4.0 | 7.0 | 0.00 | 0.00 | 0.00 | 80 | 1013.9 |
| 20260901145205 | 85 | 11 | 4.0 | 6.0 | 0.00 | 0.00 | 0.00 | 80 | 1013.9 |
| 20260901145105 | 85 | 17 | 3.0 | 6.0 | 0.00 | 0.00 | 0.00 | 81 | 1013.9 |
| 20260901145007 | 85 | 0 | 3.0 | 6.0 | 0.00 | 0.00 | 0.00 | 81 | 1013.9 |
| 20260901144905 | 84 | 0 | 3.0 | 6.0 | 0.00 | 0.00 | 0.00 | 82 | 1014.0 |
| 20260901144805 | 84 | 0 | 3.0 | 6.0 | 0.00 | 0.00 | 0.00 | 82 | 1013.9 |
| 20260901144705 | 84 | 0 | 3.0 | 6.0 | 0.00 | 0.00 | 0.00 | 82 | 1013.9 |
| 20260901144604 | 84 | 0 | 3.0 | 6.0 | 0.00 | 0.00 | 0.00 | 82 | 1013.9 |
| 20260901144505 | 84 | 0 | 3.0 | 6.0 | 0.00 | 0.00 | 0.00 | 82 | 1013.9 |
| 20260901144405 | 84 | 0 | 3.0 | 7.0 | 0.00 | 0.00 | 0.00 | 82 | 1013.9 |
| 20260901144305 | 84 | 0 | 3.0 | 7.0 | 0.00 | 0.00 | 0.00 | 83 | 1013.9 |
| 20260901144205 | 84 | 0 | 3.0 | 7.0 | 0.00 | 0.00 | 0.00 | 83 | 1014.0 |
| 20260901144106 | 84 | 0 | 2.0 | 7.0 | 0.00 | 0.00 | 0.00 | 83 | 1013.9 |
| 20260901144005 | 83 | 0 | 4.0 | 7.0 | 0.00 | 0.00 | 0.00 | 83 | 1013.9 |
| 20260901143905 | 83 | 0 | 4.0 | 7.0 | 0.00 | 0.00 | 0.00 | 83 | 1013.9 |
| 20260901143805 | 83 | 0 | 4.0 | 7.0 | 0.00 | 0.00 | 0.00 | 83 | 1013.9 |
| 20260901143705 | 83 | 358 | 4.0 | 7.0 | 0.00 | 0.00 | 0.00 | 83 | 1014.0 |
| 20260901143606 | 83 | 0 | 5.0 | 7.0 | 0.00 | 0.00 | 0.00 | 83 | 1014.0 |
| 20260901143504 | 83 | 13 | 4.0 | 7.0 | 0.00 | 0.00 | 0.00 | 83 | 1013.9 |
| 20260901143405 | 83 | 0 | 4.0 | 6.0 | 0.00 | 0.00 | 0.00 | 83 | 1013.9 |
| 20260901143305 | 83 | 354 | 4.0 | 6.0 | 0.00 | 0.00 | 0.00 | 83 | 1013.8 |
| 20260901143207 | 83 | 354 | 4.0 | 6.0 | 0.00 | 0.00 | 0.00 | 83 | 1013.9 |
| 20260901143105 | 83 | 4 | 3.0 | 6.0 | 0.00 | 0.00 | 0.00 | 83 | 1013.9 |
| 20260901143005 | 83 | 348 | 3.0 | 6.0 | 0.00 | 0.00 | 0.00 | 83 | 1013.9 |
| 20260901142905 | 83 | 348 | 3.0 | 6.0 | 0.00 | 0.00 | 0.00 | 83 | 1013.9 |
| 20260901142804 | 83 | 4 | 4.0 | 6.0 | 0.00 | 0.00 | 0.00 | 83 | 1013.9 |
| 20260901142705 | 83 | 8 | 4.0 | 6.0 | 0.00 | 0.00 | 0.00 | 82 | 1013.9 |
| 20260901142605 | 84 | 353 | 3.0 | 7.0 | 0.00 | 0.00 | 0.00 | 82 | 1013.8 |
| 20260901142505 | 84 | 354 | 4.0 | 7.0 | 0.00 | 0.00 | 0.00 | 82 | 1013.9 |
| 20260901142405 | 84 | 327 | 4.0 | 7.0 | 0.00 | 0.00 | 0.00 | 83 | 1013.8 |
| 20260901142305 | 84 | 337 | 3.0 | 7.0 | 0.00 | 0.00 | 0.00 | 83 | 1013.9 |
| 20260901142206 | 84 | 10 | 3.0 | 7.0 | 0.00 | 0.00 | 0.00 | 83 | 1013.9 |
| 20260901142104 | 84 | 353 | 2.0 | 9.0 | 0.00 | 0.00 | 0.00 | 83 | 1013.8 |
| 20260901142004 | 84 | 348 | 3.0 | 9.0 | 0.00 | 0.00 | 0.00 | 82 | 1013.8 |
| 20260901141905 | 84 | 348 | 4.0 | 9.0 | 0.00 | 0.00 | 0.00 | 82 | 1013.8 |
| 20260901141805 | 84 | 347 | 4.0 | 9.0 | 0.00 | 0.00 | 0.00 | 82 | 1013.8 |
| 20260901141704 | 84 | 6 | 5.0 | 9.0 | 0.00 | 0.00 | 0.00 | 82 | 1013.9 |
| 20260901141604 | 84 | 0 | 4.0 | 9.0 | 0.00 | 0.00 | 0.00 | 82 | 1013.8 |
| 20260901141505 | 84 | 350 | 3.0 | 9.0 | 0.00 | 0.00 | 0.00 | 83 | 1013.8 |
| 20260901141405 | 84 | 0 | 4.0 | 9.0 | 0.00 | 0.00 | 0.00 | 83 | 1013.8 |
| 20260901141304 | 84 | 20 | 6.0 | 9.0 | 0.00 | 0.00 | 0.00 | 83 | 1013.8 |
| 20260901141204 | 84 | 6 | 5.0 | 9.0 | 0.00 | 0.00 | 0.00 | 83 | 1013.9 |
| 20260901141107 | 84 | 23 | 4.0 | 9.0 | 0.00 | 0.00 | 0.00 | 83 | 1013.9 |
| 20260901141005 | 84 | 0 | 4.0 | 9.0 | 0.00 | 0.00 | 0.00 | 83 | 1013.8 |
| 20260901140904 | 84 | 0 | 4.0 | 9.0 | 0.00 | 0.00 | 0.00 | 83 | 1013.9 |
| 20260901140805 | 84 | 1 | 4.0 | 9.0 | 0.00 | 0.00 | 0.00 | 83 | 1014.0 |
| 20260901140704 | 84 | 1 | 4.0 | 9.0 | 0.00 | 0.00 | 0.00 | 83 | 1013.9 |
| 20260901140604 | 83 | 25 | 4.0 | 9.0 | 0.00 | 0.00 | 0.00 | 83 | 1014.0 |
| 20260901140504 | 84 | 357 | 5.0 | 9.0 | 0.00 | 0.00 | 0.00 | 83 | 1013.9 |
| 20260901140407 | 84 | 23 | 6.0 | 9.0 | 0.00 | 0.00 | 0.00 | 83 | 1014.0 |
| 20260901140304 | 84 | 351 | 5.0 | 9.0 | 0.00 | 0.00 | 0.00 | 83 | 1014.0 |
| 20260901140204 | 84 | 6 | 5.0 | 9.0 | 0.00 | 0.00 | 0.00 | 84 | 1014.0 |
| 20260901140106 | 83 | 6 | 4.0 | 9.0 | 0.00 | 0.00 | 0.00 | 84 | 1014.0 |
| 20260901140005 | 83 | 6 | 5.0 | 9.0 | 0.00 | 0.00 | 0.00 | 84 | 1014.0 |
| 20260901135904 | 83 | 3 | 6.0 | 9.0 | 0.00 | 0.00 | 0.00 | 84 | 1014.0 |
| 20260901135805 | 83 | 35 | 6.0 | 9.0 | 0.00 | 0.00 | 0.00 | 84 | 1014.0 |
| 20260901135705 | 83 | 11 | 7.0 | 9.0 | 0.00 | 0.00 | 0.00 | 84 | 1014.0 |
| 20260901135604 | 83 | 17 | 5.0 | 9.0 | 0.00 | 0.00 | 0.00 | 85 | 1014.0 |
| 20260901135505 | 83 | 0 | 4.0 | 7.0 | 0.00 | 0.00 | 0.00 | 86 | 1014.1 |
| 20260901135405 | 83 | 32 | 4.0 | 7.0 | 0.00 | 0.00 | 0.00 | 86 | 1014.0 |
| 20260901135305 | 82 | 24 | 5.0 | 7.0 | 0.00 | 0.00 | 0.00 | 86 | 1014.1 |
| 20260901135203 | 82 | 0 | 5.0 | 7.0 | 0.00 | 0.00 | 0.00 | 86 | 1014.1 |
| 20260901135105 | 82 | 345 | 5.0 | 7.0 | 0.00 | 0.00 | 0.00 | 86 | 1014.0 |
| 20260901135004 | 82 | 327 | 5.0 | 6.0 | 0.00 | 0.00 | 0.00 | 87 | 1014.1 |
| 20260901134904 | 82 | 0 | 4.0 | 6.0 | 0.00 | 0.00 | 0.00 | 87 | 1014.2 |
| 20260901134804 | 82 | 0 | 3.0 | 6.0 | 0.00 | 0.00 | 0.00 | 87 | 1014.2 |
| 20260901134704 | 82 | 0 | 3.0 | 5.0 | 0.00 | 0.00 | 0.00 | 87 | 1014.1 |
| 20260901134603 | 82 | 0 | 4.0 | 5.0 | 0.00 | 0.00 | 0.00 | 87 | 1014.2 |
| 20260901134504 | 82 | 354 | 4.0 | 5.0 | 0.00 | 0.00 | 0.00 | 87 | 1014.2 |
| 20260901134403 | 82 | 357 | 3.0 | 6.0 | 0.00 | 0.00 | 0.00 | 87 | 1014.2 |
| 20260901134303 | 81 | 357 | 3.0 | 7.0 | 0.00 | 0.00 | 0.00 | 88 | 1014.2 |
| 20260901134203 | 81 | 357 | 4.0 | 7.0 | 0.00 | 0.00 | 0.00 | 88 | 1014.2 |
| 20260901134104 | 81 | 343 | 3.0 | 7.0 | 0.00 | 0.00 | 0.00 | 88 | 1014.2 |
| 20260901134004 | 81 | 7 | 1.0 | 7.0 | 0.00 | 0.00 | 0.00 | 88 | 1014.3 |
| 20260901133903 | 81 | 7 | 2.0 | 7.0 | 0.00 | 0.00 | 0.00 | 88 | 1014.2 |
| 20260901133803 | 81 | 7 | 2.0 | 7.0 | 0.00 | 0.00 | 0.00 | 88 | 1014.3 |
| 20260901133704 | 81 | 8 | 3.0 | 7.0 | 0.00 | 0.00 | 0.00 | 88 | 1014.3 |
| 20260901133604 | 81 | 8 | 4.0 | 7.0 | 0.00 | 0.00 | 0.00 | 88 | 1014.3 |
| 20260901133504 | 81 | 1 | 6.0 | 7.0 | 0.00 | 0.00 | 0.00 | 88 | 1014.3 |
| 20260901133404 | 81 | 31 | 6.0 | 7.0 | 0.00 | 0.00 | 0.00 | 88 | 1014.2 |
| 20260901133305 | 81 | 23 | 4.0 | 7.0 | 0.00 | 0.00 | 0.00 | 89 | 1014.3 |
| 20260901133204 | 81 | 17 | 3.0 | 7.0 | 0.00 | 0.00 | 0.00 | 89 | 1014.3 |
| 20260901133103 | 81 | 21 | 4.0 | 7.0 | 0.00 | 0.00 | 0.00 | 89 | 1014.3 |
| 20260901133004 | 81 | 20 | 4.0 | 7.0 | 0.00 | 0.00 | 0.00 | 89 | 1014.2 |
| 20260901132903 | 81 | 17 | 5.0 | 7.0 | 0.00 | 0.00 | 0.00 | 89 | 1014.2 |
| 20260901132803 | 81 | 32 | 5.0 | 7.0 | 0.00 | 0.00 | 0.00 | 89 | 1014.3 |
| 20260901132703 | 81 | 42 | 4.0 | 7.0 | 0.00 | 0.00 | 0.00 | 89 | 1014.2 |
| 20260901132603 | 81 | 39 | 4.0 | 6.0 | 0.00 | 0.00 | 0.00 | 89 | 1014.2 |
| 20260901132504 | 81 | 0 | 4.0 | 6.0 | 0.00 | 0.00 | 0.00 | 89 | 1014.2 |
| 20260901132403 | 81 | 17 | 4.0 | 6.0 | 0.00 | 0.00 | 0.00 | 89 | 1014.1 |
| 20260901132307 | 81 | 20 | 2.0 | 5.0 | 0.00 | 0.00 | 0.00 | 90 | 1014.1 |
| 20260901132205 | 81 | 7 | 2.0 | 5.0 | 0.00 | 0.00 | 0.00 | 90 | 1014.1 |
| 20260901132103 | 80 | 7 | 2.0 | 5.0 | 0.00 | 0.00 | 0.00 | 90 | 1014.1 |
| 20260901132003 | 80 | 7 | 2.0 | 5.0 | 0.00 | 0.00 | 0.00 | 90 | 1014.0 |
| 20260901131904 | 80 | 7 | 2.0 | 5.0 | 0.00 | 0.00 | 0.00 | 90 | 1014.0 |
| 20260901131803 | 80 | 7 | 2.0 | 5.0 | 0.00 | 0.00 | 0.00 | 90 | 1014.0 |
| 20260901131703 | 80 | 11 | 2.0 | 5.0 | 0.00 | 0.00 | 0.00 | 90 | 1013.9 |
| 20260901131604 | 80 | 13 | 2.0 | 5.0 | 0.00 | 0.00 | 0.00 | 90 | 1013.9 |
| 20260901131504 | 80 | 13 | 2.0 | 5.0 | 0.00 | 0.00 | 0.00 | 90 | 1013.9 |
| 20260901131405 | 80 | 21 | 3.0 | 5.0 | 0.00 | 0.00 | 0.00 | 90 | 1013.8 |
| 20260901131304 | 80 | 25 | 3.0 | 5.0 | 0.00 | 0.00 | 0.00 | 90 | 1013.9 |
| 20260901131203 | 80 | 25 | 4.0 | 5.0 | 0.00 | 0.00 | 0.00 | 90 | 1013.8 |
| 20260901131103 | 80 | 13 | 3.0 | 5.0 | 0.00 | 0.00 | 0.00 | 90 | 1013.8 |
| 20260901131004 | 80 | 0 | 3.0 | 5.0 | 0.00 | 0.00 | 0.00 | 90 | 1013.8 |
| 20260901130904 | 80 | 353 | 3.0 | 5.0 | 0.00 | 0.00 | 0.00 | 90 | 1013.8 |
| 20260901130803 | 80 | 340 | 3.0 | 7.0 | 0.00 | 0.00 | 0.00 | 90 | 1013.8 |
| 20260901130703 | 80 | 0 | 3.0 | 7.0 | 0.00 | 0.00 | 0.00 | 90 | 1013.7 |
| 20260901130604 | 80 | 0 | 3.0 | 7.0 | 0.00 | 0.00 | 0.00 | 90 | 1013.7 |
| 20260901130504 | 80 | 6 | 3.0 | 7.0 | 0.00 | 0.00 | 0.00 | 90 | 1013.7 |
| 20260901130402 | 80 | 6 | 4.0 | 7.0 | 0.00 | 0.00 | 0.00 | 90 | 1013.7 |
| 20260901130304 | 80 | 3 | 4.0 | 7.0 | 0.00 | 0.00 | 0.00 | 90 | 1013.7 |
| 20260901130204 | 80 | 16 | 4.0 | 7.0 | 0.00 | 0.00 | 0.00 | 90 | 1013.7 |
| 20260901130103 | 80 | 354 | 3.0 | 7.0 | 0.00 | 0.00 | 0.00 | 91 | 1013.7 |
| 20260901130002 | 80 | 353 | 4.0 | 7.0 | 0.00 | 0.00 | 0.00 | 91 | 1013.6 |
| 20260901125903 | 80 | 11 | 4.0 | 7.0 | 0.00 | 0.00 | 0.00 | 91 | 1013.6 |
| 20260901125803 | 80 | 13 | 4.0 | 7.0 | 0.00 | 0.00 | 0.00 | 91 | 1013.6 |
| 20260901125702 | 80 | 0 | 4.0 | 7.0 | 0.00 | 0.00 | 0.00 | 91 | 1013.7 |
| 20260901125558 | 80 | 8 | 3.0 | 7.0 | 0.00 | 0.00 | 0.00 | 91 | 1013.7 |
| 20260901125459 | 80 | 10 | 4.0 | 7.0 | 0.00 | 0.00 | 0.00 | 91 | 1013.7 |
| 20260901125357 | 80 | 13 | 4.0 | 7.0 | 0.00 | 0.00 | 0.00 | 91 | 1013.6 |
| 20260901125256 | 80 | 18 | 4.0 | 7.0 | 0.00 | 0.00 | 0.00 | 91 | 1013.6 |
| 20260901125155 | 80 | 25 | 4.0 | 7.0 | 0.00 | 0.00 | 0.00 | 91 | 1013.6 |
| 20260901125049 | 80 | 17 | 4.0 | 7.0 | 0.00 | 0.00 | 0.00 | 91 | 1013.5 |
| 20260901124947 | 79 | 17 | 4.0 | 7.0 | 0.00 | 0.00 | 0.00 | 91 | 1013.5 |
| 20260901124847 | 79 | 347 | 3.0 | 5.0 | 0.00 | 0.00 | 0.00 | 91 | 1013.5 |
| 20260901124738 | 79 | 3 | 3.0 | 5.0 | 0.00 | 0.00 | 0.00 | 91 | 1013.5 |
| 20260901124636 | 79 | 10 | 3.0 | 5.0 | 0.00 | 0.00 | 0.00 | 91 | 1013.5 |
| 20260901124536 | 79 | 18 | 3.0 | 5.0 | 0.00 | 0.00 | 0.00 | 91 | 1013.4 |
| 20260901124433 | 79 | 7 | 3.0 | 5.0 | 0.00 | 0.00 | 0.00 | 91 | 1013.4 |
| 20260901124333 | 79 | 7 | 3.0 | 5.0 | 0.00 | 0.00 | 0.00 | 91 | 1013.4 |
| 20260901124231 | 79 | 8 | 3.0 | 5.0 | 0.00 | 0.00 | 0.00 | 91 | 1013.4 |
| 20260901124131 | 79 | 0 | 3.0 | 5.0 | 0.00 | 0.00 | 0.00 | 91 | 1013.4 |
| 20260901124032 | 79 | 11 | 4.0 | 5.0 | 0.00 | 0.00 | 0.00 | 91 | 1013.5 |
| 20260901123932 | 79 | 0 | 3.0 | 5.0 | 0.00 | 0.00 | 0.00 | 91 | 1013.4 |
| 20260901123831 | 79 | 0 | 3.0 | 5.0 | 0.00 | 0.00 | 0.00 | 91 | 1013.4 |
| 20260901123731 | 79 | 1 | 3.0 | 5.0 | 0.00 | 0.00 | 0.00 | 91 | 1013.4 |
| 20260901123631 | 79 | 0 | 2.0 | 4.0 | 0.00 | 0.00 | 0.00 | 91 | 1013.4 |
| 20260901123531 | 79 | 0 | 3.0 | 4.0 | 0.00 | 0.00 | 0.00 | 91 | 1013.4 |
| 20260901123430 | 79 | 0 | 2.0 | 4.0 | 0.00 | 0.00 | 0.00 | 91 | 1013.4 |
| 20260901123333 | 79 | 327 | 2.0 | 4.0 | 0.00 | 0.00 | 0.00 | 91 | 1013.3 |
| 20260901123231 | 79 | 327 | 2.0 | 4.0 | 0.00 | 0.00 | 0.00 | 91 | 1013.4 |
| 20260901123131 | 79 | 327 | 2.0 | 4.0 | 0.00 | 0.00 | 0.00 | 91 | 1013.4 |
| 20260901123033 | 79 | 327 | 2.0 | 4.0 | 0.00 | 0.00 | 0.00 | 91 | 1013.3 |
| 20260901122932 | 79 | 329 | 2.0 | 4.0 | 0.00 | 0.00 | 0.00 | 91 | 1013.3 |
| 20260901122830 | 79 | 327 | 2.0 | 4.0 | 0.00 | 0.00 | 0.00 | 91 | 1013.3 |
| 20260901122731 | 79 | 327 | 2.0 | 4.0 | 0.00 | 0.00 | 0.00 | 91 | 1013.3 |
| 20260901122631 | 79 | 329 | 3.0 | 4.0 | 0.00 | 0.00 | 0.00 | 91 | 1013.3 |
| 20260901122531 | 79 | 329 | 3.0 | 4.0 | 0.00 | 0.00 | 0.00 | 91 | 1013.2 |
| 20260901122432 | 79 | 344 | 2.0 | 3.0 | 0.00 | 0.00 | 0.00 | 91 | 1013.2 |
| 20260901122333 | 79 | 0 | 2.0 | 3.0 | 0.00 | 0.00 | 0.00 | 91 | 1013.2 |
| 20260901122232 | 79 | 0 | 0.0 | 0.0 | 0.00 | 0.00 | 0.00 | 91 | 1013.2 |
| 20260901122119 | 79 | 0 | 0.0 | 0.0 | 0.00 | 0.00 | 0.00 | 91 | 1013.1 |
| 20260901122018 | 79 | 0 | 0.0 | 2.0 | 0.00 | 0.00 | 0.00 | 91 | 1013.2 |
| 20260901121916 | 79 | 0 | 0.0 | 3.0 | 0.00 | 0.00 | 0.00 | 91 | 1013.2 |
| 20260901121816 | 79 | 0 | 0.0 | 3.0 | 0.00 | 0.00 | 0.00 | 91 | 1013.2 |
| 20260901121712 | 79 | 0 | 0.0 | 3.0 | 0.00 | 0.00 | 0.00 | 91 | 1013.3 |
| 20260901121611 | 79 | 0 | 0.0 | 3.0 | 0.00 | 0.00 | 0.00 | 91 | 1013.4 |
| 20260901121510 | 79 | 0 | 0.0 | 4.0 | 0.00 | 0.00 | 0.00 | 91 | 1013.3 |
| 20260901121409 | 79 | 0 | 0.0 | 4.0 | 0.00 | 0.00 | 0.00 | 91 | 1013.3 |
| 20260901121307 | 79 | 0 | 0.0 | 4.0 | 0.00 | 0.00 | 0.00 | 91 | 1013.3 |
| 20260901121207 | 79 | 0 | 1.0 | 4.0 | 0.00 | 0.00 | 0.00 | 92 | 1013.2 |
| 20260901121103 | 79 | 0 | 2.0 | 4.0 | 0.00 | 0.00 | 0.00 | 92 | 1013.2 |
| 20260901121006 | 79 | 0 | 2.0 | 4.0 | 0.00 | 0.00 | 0.00 | 92 | 1013.2 |
| 20260901120902 | 79 | 0 | 2.0 | 4.0 | 0.00 | 0.00 | 0.00 | 92 | 1013.2 |
| 20260901120801 | 79 | 0 | 3.0 | 4.0 | 0.00 | 0.00 | 0.00 | 92 | 1013.2 |
| 20260901120703 | 79 | 0 | 3.0 | 4.0 | 0.00 | 0.00 | 0.00 | 92 | 1013.1 |
| 20260901120602 | 79 | 0 | 3.0 | 4.0 | 0.00 | 0.00 | 0.00 | 92 | 1013.1 |
| 20260901120502 | 79 | 0 | 3.0 | 4.0 | 0.00 | 0.00 | 0.00 | 92 | 1013.1 |